ECMWFFLT2_500_spd_000.txt.gz
Wind_Speed
26 22 20 19 17 16 15 14 14 13 13 14 13 14 15 14 14 15 15 15 15 14 13 13 12 12 13 14 14 12 11 12 15 19 21 21 18 17 17 16 17 19 22 24 24 22 20 19 18 16 14 13 14 15 18 21 23 24 25 25 24 23
23 21 19 17 16 15 15 14 13 13 13 14 14 15 14 14 14 15 15 14 14 13 14 14 13 13 15 15 13 13 13 13 14 16 20 22 21 20 19 17 17 19 22 25 25 23 21 20 19 17 16 15 14 15 17 20 22 24 25 26 25 24
20 19 18 16 16 15 14 14 13 13 14 14 14 14 14 14 14 15 15 13 13 13 14 15 15 16 16 15 14 14 15 14 14 14 17 22 24 23 22 19 17 18 22 25 26 24 22 21 19 19 18 16 15 16 17 19 21 23 24 25 26 25
18 17 16 16 15 14 14 13 13 13 13 13 13 14 14 14 14 14 14 13 13 14 14 15 16 17 17 15 14 15 15 15 15 15 16 19 24 26 25 22 19 18 21 26 27 26 23 21 20 20 19 17 16 16 17 19 20 22 23 25 26 26
16 15 16 15 14 14 13 13 12 13 13 13 13 13 14 14 14 13 13 13 12 14 14 15 16 17 17 14 12 13 14 15 15 16 18 19 22 27 28 24 21 20 21 25 27 27 24 22 21 21 20 18 17 17 17 19 20 21 22 24 25 26
14 15 16 15 14 13 13 13 12 13 13 13 14 14 14 15 14 13 13 13 13 13 14 14 15 17 17 14 12 12 13 14 15 17 19 20 21 25 29 27 24 23 23 25 28 28 25 23 22 22 21 20 18 17 17 19 20 20 21 22 23 24
14 15 16 15 14 13 13 13 13 13 14 14 15 15 15 16 16 14 13 14 13 13 12 13 15 17 18 17 14 13 14 15 16 18 19 21 21 24 27 27 26 25 24 25 27 28 27 25 23 22 23 21 20 19 18 18 19 20 21 21 22 22
16 16 16 15 14 14 14 14 14 14 15 15 16 16 17 17 17 17 16 15 14 13 11 12 15 18 19 18 16 14 15 15 16 17 19 21 21 23 26 25 26 27 25 25 26 28 28 26 25 24 24 23 21 20 18 18 19 20 21 21 21 22
16 16 16 15 14 15 15 15 16 16 16 17 17 17 18 19 19 19 19 17 15 14 13 13 16 19 20 18 16 16 16 16 16 16 17 19 20 22 24 24 26 28 28 27 26 27 30 29 27 26 26 25 23 21 20 19 19 20 21 21 22 22
16 16 16 15 15 16 16 17 17 17 17 19 20 19 20 20 21 22 21 19 16 16 15 15 18 21 21 18 15 15 16 17 16 15 16 18 19 21 22 23 25 28 29 29 28 27 29 31 29 28 27 27 25 23 22 21 20 20 21 21 22 23
16 16 15 16 16 17 17 18 18 18 19 20 21 21 21 21 23 24 23 21 19 18 17 17 20 22 21 18 14 13 15 16 15 15 17 18 19 20 22 23 25 28 30 31 30 28 28 30 31 30 29 28 27 25 24 23 22 21 21 22 22 23
16 16 16 16 17 18 19 19 19 20 20 21 21 22 22 23 24 25 25 23 21 20 19 18 22 23 21 17 13 12 14 15 15 15 17 19 20 20 20 21 24 27 30 31 32 30 29 29 31 31 31 30 29 28 26 25 24 23 23 23 23 23
17 17 17 18 19 20 20 20 20 21 21 21 21 22 23 23 24 25 25 24 22 21 20 21 23 23 21 18 14 13 15 16 16 16 17 20 21 20 20 20 22 26 29 31 33 33 31 30 30 31 32 32 31 30 29 27 26 26 25 24 24 24
19 19 19 19 20 21 22 22 22 21 21 21 21 22 23 23 24 24 24 23 22 22 21 23 24 22 22 21 18 17 17 18 17 16 18 20 21 22 22 21 22 25 29 31 33 35 35 33 31 31 31 32 33 33 31 30 29 28 27 27 26 25
21 21 21 21 21 22 22 23 22 22 21 21 20 21 22 23 23 23 22 22 22 22 22 23 24 23 23 23 21 20 20 20 20 18 18 19 20 22 22 22 23 25 28 31 33 35 36 35 34 32 31 32 33 34 33 32 31 30 30 29 28 27
23 23 22 22 22 22 23 23 22 22 21 21 20 20 20 21 22 22 22 22 22 23 24 24 24 24 23 22 21 20 20 21 21 19 18 18 19 20 21 22 22 24 26 29 32 35 36 36 37 35 33 32 33 34 35 34 33 33 32 31 30 29
24 24 24 23 23 23 23 23 22 22 21 20 20 20 20 21 22 22 22 22 23 24 26 25 24 24 22 21 21 20 20 22 21 20 20 18 17 17 19 21 21 22 24 27 30 34 35 36 38 38 36 35 33 33 35 36 36 35 34 33 32 31
25 25 24 24 23 23 23 23 23 22 21 20 20 20 20 21 22 23 24 24 24 25 26 25 24 24 23 21 21 21 21 22 22 22 21 20 18 18 19 21 21 21 22 24 27 30 34 35 37 39 39 38 36 35 36 37 37 36 35 35 35 35
26 25 25 24 23 23 24 24 23 22 21 21 21 21 21 22 23 23 24 25 25 26 26 25 24 23 23 22 22 22 22 22 22 22 22 22 21 19 20 21 21 22 21 23 26 28 32 34 35 37 40 42 40 38 38 38 37 37 38 38 38 37
25 25 24 23 23 24 24 24 24 23 22 22 21 22 22 23 23 24 24 25 25 26 26 26 24 23 23 22 23 23 23 23 22 23 24 24 22 19 20 20 20 23 22 21 24 27 29 32 34 35 39 42 43 42 40 39 38 37 38 39 40 39
25 25 24 24 24 24 24 24 24 24 23 23 22 22 23 23 24 24 24 24 25 26 26 26 25 24 24 24 24 24 24 23 23 25 25 24 23 22 23 21 22 26 26 22 21 22 25 28 31 33 36 38 41 45 44 43 42 39 38 39 41 42
25 25 24 24 25 24 24 24 24 24 24 24 24 24 24 24 25 24 24 25 25 26 26 25 25 24 25 25 25 25 24 24 25 27 27 25 24 25 25 24 25 25 23 21 19 19 20 23 27 31 33 33 34 39 44 46 45 43 41 41 42 43
25 25 25 25 25 25 25 24 24 24 25 25 25 25 25 25 25 25 25 25 25 25 25 25 25 24 25 26 26 26 25 25 26 28 28 27 26 27 24 23 24 23 19 18 18 19 19 19 22 28 31 32 32 34 40 46 49 48 47 44 42 43
26 25 25 25 25 25 25 25 25 25 25 26 25 25 26 26 26 26 25 25 25 25 25 25 25 25 25 26 26 27 26 25 26 28 29 29 29 28 24 21 24 24 20 19 20 21 22 21 21 26 29 28 29 32 36 42 47 49 50 47 43 44
25 25 25 25 25 25 26 26 26 25 26 26 26 26 26 26 27 27 26 25 25 25 25 24 24 24 24 25 26 27 27 26 26 27 28 30 31 30 28 26 28 26 22 21 21 22 23 23 23 26 30 29 26 26 30 36 38 40 44 47 45 44
24 23 23 23 24 26 27 27 26 26 26 26 26 26 26 26 26 26 25 24 24 24 24 24 23 24 24 25 26 27 27 27 27 27 28 29 30 31 30 30 31 30 27 25 23 23 23 24 25 28 32 32 30 25 24 28 33 35 37 41 44 44
22 22 22 22 24 26 27 27 26 25 26 26 26 26 26 26 26 25 24 23 22 22 23 23 23 23 23 24 25 26 26 27 27 27 27 27 28 29 29 31 32 32 31 29 27 26 24 24 26 28 29 30 32 29 22 19 25 32 34 34 39 41
21 21 21 22 24 25 26 26 26 25 25 26 26 26 26 26 26 25 23 21 21 21 22 22 22 22 22 23 24 25 26 26 26 26 26 26 27 26 26 28 29 30 30 30 29 29 28 26 26 27 28 27 29 29 25 19 19 24 28 29 31 35
20 20 20 21 23 24 25 25 25 24 25 26 26 26 26 26 25 24 23 21 20 20 20 21 21 21 22 23 24 24 25 26 26 26 26 26 26 26 25 25 26 26 27 27 27 28 29 28 28 28 27 27 28 27 26 25 22 22 24 26 28 31
20 20 20 21 22 23 24 24 24 24 24 25 25 26 25 25 24 23 23 22 21 20 20 20 20 20 20 21 23 24 24 25 25 25 25 25 25 25 25 24 24 24 24 25 25 26 28 28 29 29 29 29 28 28 28 28 28 27 27 27 29 31
20 19 20 20 21 22 23 23 23 22 23 23 24 24 24 23 23 23 22 22 22 21 21 20 19 19 19 20 21 23 24 24 25 25 24 24 24 24 24 24 23 23 23 24 24 25 26 27 28 28 29 29 29 28 29 29 29 30 31 31 32 33
20 20 20 20 21 21 21 22 22 22 22 22 23 23 23 22 22 22 22 22 22 22 22 21 20 19 19 19 20 22 23 23 24 24 24 24 24 24 23 23 23 23 23 24 24 25 25 26 26 27 28 28 28 28 28 28 29 30 31 33 34 35
22 21 21 21 21 21 21 21 21 21 21 22 22 22 22 22 22 21 21 21 22 22 22 21 20 20 19 19 20 21 22 22 23 23 23 23 23 23 23 23 23 23 23 23 24 24 24 25 25 26 26 27 27 27 27 27 28 29 30 31 32 34
23 23 23 23 23 23 23 22 22 22 22 22 22 22 23 22 22 22 21 21 22 22 22 21 20 20 19 19 19 20 21 21 22 23 23 23 23 23 23 23 23 23 23 23 24 24 24 24 25 25 26 26 27 27 27 28 28 28 29 30 31 31
23 24 25 25 25 24 24 24 24 24 24 24 24 23 23 23 22 22 22 22 22 22 22 21 20 19 19 19 19 19 20 21 22 23 23 23 23 24 24 24 24 23 23 22 23 24 24 24 25 25 26 26 27 27 28 28 29 29 29 30 30 30
22 23 24 24 23 23 23 24 24 25 25 26 26 26 25 24 23 23 23 23 23 23 23 22 20 19 19 19 19 19 20 21 22 23 23 24 24 25 25 25 25 25 25 24 23 23 24 25 25 25 26 27 27 28 28 29 29 30 30 31 31 31
23 23 22 21 20 20 20 22 23 24 25 26 27 27 27 26 25 24 23 23 24 24 24 23 22 21 20 20 19 20 20 21 21 22 23 24 24 25 26 26 26 26 26 27 26 25 25 26 26 27 27 27 28 28 29 30 30 31 31 32 32 32

ECMWFFLT2_500_spd_003.txt.gz
Wind_Speed
24 24 23 22 20 19 18 17 17 17 16 15 14 13 13 14 14 14 15 15 15 15 14 14 13 13 13 13 11 11 11 11 11 12 15 18 17 15 16 15 10 10 14 18 22 24 23 22 20 18 17 16 16 17 19 22 23 24 24 23 23 21
23 22 21 19 18 17 17 17 17 17 16 15 14 13 13 14 14 15 15 15 15 15 14 13 13 13 13 13 12 11 12 13 12 12 14 17 20 18 16 16 12 10 14 19 23 25 24 23 22 19 18 17 16 17 18 21 22 23 24 24 23 22
22 20 19 18 17 17 16 16 16 16 16 15 14 13 14 14 14 14 14 14 15 15 14 13 13 13 13 13 12 12 13 15 14 14 15 16 18 20 18 17 16 12 13 20 24 25 25 23 23 20 18 17 16 17 18 20 22 23 23 24 24 23
20 18 17 17 17 16 16 16 16 16 16 15 14 13 13 13 13 13 13 14 14 15 14 13 13 12 13 13 13 13 14 15 16 15 16 17 17 20 20 18 18 17 14 19 24 25 25 24 23 21 19 17 16 16 17 19 21 22 23 24 24 24
20 18 17 17 17 17 16 17 16 16 16 15 14 13 13 13 13 13 13 13 13 14 14 14 13 12 12 13 13 14 15 16 17 17 17 18 17 18 20 20 19 19 16 18 24 26 26 25 24 22 21 19 17 17 17 18 19 21 23 24 24 24
20 18 17 17 18 17 17 18 17 16 16 15 14 13 13 13 13 13 14 13 13 13 13 13 13 12 12 13 14 14 15 16 17 17 17 19 19 18 20 21 20 20 19 18 22 26 27 27 26 24 23 21 19 17 17 18 19 21 22 23 24 24
20 18 18 18 18 18 18 18 17 16 16 15 14 14 13 14 14 14 14 14 14 13 13 13 12 11 12 13 14 14 14 15 16 18 19 19 20 20 20 21 21 22 23 21 21 25 27 28 28 26 24 23 20 19 18 19 20 21 22 22 23 24
20 19 19 19 18 18 19 19 18 17 16 16 15 15 14 14 14 15 15 16 16 15 15 15 13 12 13 14 13 12 15 17 18 19 20 20 20 21 21 21 22 23 25 25 23 24 27 28 29 28 26 24 22 21 20 19 20 21 22 23 24 24
19 19 19 19 19 19 20 19 18 17 17 17 16 16 16 16 16 16 17 18 18 17 16 16 15 14 15 14 13 13 15 18 20 20 20 20 20 20 21 22 23 23 25 27 26 25 26 28 30 29 28 26 24 23 21 20 21 22 23 24 24 24
18 18 19 19 19 20 20 20 19 18 17 17 17 17 17 17 18 18 19 20 20 19 18 17 17 17 16 15 16 17 17 18 20 21 21 21 20 20 20 21 23 23 23 26 28 27 26 28 30 31 30 28 27 25 23 21 21 22 23 24 25 25
16 17 18 19 19 21 21 20 19 18 18 18 18 19 19 19 20 20 21 21 21 21 19 19 19 18 18 17 18 19 17 17 18 20 20 21 21 21 20 20 21 23 22 24 28 29 28 28 29 31 32 30 29 27 25 24 23 22 23 24 24 24
17 17 18 19 20 21 21 20 20 19 19 19 19 20 21 21 21 22 23 23 23 22 21 21 20 19 20 18 19 21 17 14 15 17 19 20 22 22 20 20 20 21 22 22 26 30 30 29 29 31 33 33 31 29 27 26 25 24 23 23 23 24
18 18 19 20 21 21 21 21 20 20 20 20 20 21 21 21 22 23 24 24 24 23 22 22 22 21 21 20 20 21 17 15 17 17 19 20 22 23 21 21 20 20 21 21 23 28 31 31 31 30 32 34 33 31 30 28 27 26 25 24 23 23
20 19 20 21 21 22 21 21 20 20 20 20 20 21 21 21 22 23 24 25 24 24 23 22 22 21 21 22 21 20 19 20 21 20 20 20 21 22 22 22 21 21 22 22 22 26 29 31 33 31 30 33 34 33 31 30 29 28 26 25 24 24
22 21 21 22 23 23 22 21 20 20 21 21 21 21 21 21 22 22 23 24 24 23 23 22 22 21 21 22 22 22 22 24 23 21 21 21 22 23 22 21 22 22 22 22 23 26 28 30 33 34 31 31 33 34 34 32 31 30 29 28 27 26
23 23 23 24 24 24 23 23 22 22 22 22 21 21 21 21 21 22 22 23 23 23 22 22 22 21 21 23 24 24 24 25 25 22 21 21 22 23 22 21 22 22 22 22 24 26 29 30 32 35 34 32 31 33 35 35 34 33 32 31 30 29
25 25 26 26 26 26 25 25 24 24 24 23 22 22 21 21 21 21 21 22 23 23 22 23 23 23 22 23 25 25 25 26 26 23 22 22 21 22 22 21 21 21 22 21 23 25 28 30 32 34 36 36 33 32 34 37 37 36 35 33 32 31
27 27 28 28 28 28 27 27 26 25 25 24 23 22 22 22 21 21 21 22 23 23 23 23 24 25 24 24 25 25 26 27 26 25 24 22 21 23 24 22 21 21 21 21 21 22 25 29 31 33 35 38 38 36 35 36 38 38 37 36 35 34
28 29 29 29 29 29 29 28 28 27 26 25 24 23 23 23 22 22 22 22 23 24 24 24 25 25 25 24 24 25 27 28 28 27 25 24 23 25 25 24 23 22 21 20 21 21 21 25 30 32 33 36 39 39 38 36 36 38 38 38 38 37
29 29 29 30 30 30 29 29 29 28 27 26 25 25 24 24 23 23 23 23 24 25 25 25 25 26 25 25 25 25 26 28 28 28 27 26 25 25 26 25 25 24 22 20 20 20 20 21 27 31 33 34 36 39 40 39 37 37 38 40 40 39
28 29 29 30 30 30 30 30 29 28 27 26 26 26 25 25 24 24 24 25 25 25 26 26 26 26 25 25 25 25 26 28 29 29 28 28 26 25 26 26 26 26 23 20 18 18 19 19 21 27 32 34 35 36 38 40 40 39 38 39 41 41
26 26 27 28 29 29 30 29 28 28 27 27 26 26 25 25 25 26 26 26 26 26 26 27 27 26 26 25 25 25 26 27 28 29 29 29 28 26 27 27 25 25 24 20 18 17 18 20 20 21 25 30 34 37 36 38 42 42 40 39 40 42
26 25 25 25 26 27 28 28 27 27 26 26 26 26 26 26 26 26 26 26 26 27 27 27 28 27 26 25 25 25 26 27 28 28 29 29 29 28 29 28 25 25 24 21 20 18 16 18 20 19 21 25 28 34 36 37 40 43 43 42 42 43
26 25 25 25 26 26 27 26 25 25 25 25 25 25 26 26 27 27 27 27 26 26 27 27 28 27 27 26 25 25 26 27 28 28 28 29 29 29 29 28 27 26 24 21 21 20 18 18 19 18 21 24 25 29 33 35 37 40 43 45 45 45
25 25 24 24 25 26 26 25 24 24 24 24 24 25 26 27 27 27 27 27 26 26 27 27 28 28 27 26 25 25 26 27 28 28 28 28 29 29 29 29 29 29 27 25 23 22 21 21 20 19 20 24 24 25 29 32 34 37 39 44 47 49
25 24 23 23 24 24 24 23 22 23 23 23 24 24 25 26 27 27 27 27 27 27 27 27 27 27 26 26 25 25 25 26 27 27 27 28 28 28 28 28 30 30 30 29 26 24 23 22 21 20 20 22 24 23 26 29 32 34 35 38 43 47
25 23 22 23 24 23 22 21 20 21 22 22 23 24 25 25 25 26 26 26 27 27 27 27 27 27 26 25 24 24 25 25 26 27 26 27 28 27 27 27 28 30 31 31 30 29 28 25 23 21 20 21 22 22 23 27 29 29 31 34 36 40
25 23 22 23 23 22 21 20 20 21 21 22 22 23 23 24 24 24 25 25 26 26 26 26 26 26 25 24 23 24 24 25 26 26 26 27 27 27 26 26 27 28 29 31 31 31 31 30 28 26 25 23 24 24 23 24 25 23 26 30 33 34
23 22 22 23 22 21 21 20 20 20 21 21 21 22 22 22 23 23 24 24 24 25 25 25 25 24 23 23 23 23 24 25 26 26 26 26 26 26 26 25 25 26 27 28 29 30 30 30 29 29 29 28 27 27 26 25 24 22 22 26 29 31
22 21 21 21 21 21 21 20 20 20 20 20 21 21 21 22 22 23 23 24 24 24 23 23 23 23 22 22 22 22 23 24 25 25 25 25 25 25 25 25 25 25 25 26 27 27 27 28 29 28 30 30 29 29 27 26 25 23 23 23 23 26
21 20 20 20 20 20 20 20 20 20 20 19 20 20 21 21 22 22 23 23 24 23 23 23 22 22 22 21 21 21 22 23 24 25 25 24 24 24 24 24 24 24 24 24 25 25 25 26 27 27 27 29 30 29 28 28 27 24 24 24 22 22
21 20 19 19 19 20 20 20 20 20 19 19 19 19 20 21 21 21 22 22 23 23 23 23 22 22 22 21 21 21 21 22 23 24 24 23 23 23 23 23 23 23 23 24 24 24 24 24 25 25 25 27 28 29 28 28 28 26 25 25 24 24
21 20 20 19 20 20 20 21 21 21 20 19 18 18 19 19 20 21 21 21 22 22 23 22 22 22 21 21 21 21 21 22 22 23 22 22 21 21 21 22 22 23 23 23 23 24 24 23 24 25 25 25 26 27 27 27 27 27 26 26 26 26
21 20 20 20 20 21 21 21 21 21 21 20 20 19 19 19 19 20 20 21 21 22 22 22 21 21 21 20 20 21 21 21 22 22 22 21 21 20 20 20 21 21 22 22 22 23 23 23 23 23 24 24 24 25 26 25 25 26 25 25 25 26
20 19 19 19 20 21 22 22 22 23 22 22 22 21 20 19 19 19 20 20 21 21 21 21 21 20 20 20 20 20 20 21 21 21 21 21 20 20 19 19 20 20 21 21 21 22 23 23 23 23 23 24 24 24 25 25 25 25 25 25 25 25
20 18 18 19 19 20 21 22 23 23 23 23 23 22 22 21 20 19 20 20 21 21 22 21 20 19 19 19 19 19 19 19 20 21 21 21 21 20 20 20 20 20 20 21 21 22 22 23 23 23 23 23 24 24 24 25 25 25 25 26 26 26
21 20 21 20 19 20 21 21 22 22 22 22 22 22 21 21 21 20 20 20 21 22 22 22 21 20 19 19 19 19 19 19 19 19 20 21 21 21 21 21 21 21 21 22 22 22 22 23 23 24 23 23 24 24 25 25 26 27 27 27 27 27

ECMWFFLT2_500_spd_009.txt.gz
Wind_Speed
26 25 26 25 25 24 23 22 22 22 21 21 21 20 20 21 21 19 19 19 20 20 18 17 16 16 16 16 16 16 16 17 17 17 18 19 20 21 22 23 23 24 24 24 26 26 26 29 30 29 27 25 22 22 22 24 25 27 28 28 26 25
26 25 24 24 24 25 24 22 22 21 21 21 21 21 19 20 21 20 20 20 20 19 18 17 15 16 16 16 15 15 15 16 17 17 18 18 19 20 21 22 23 23 23 20 23 27 28 29 31 30 28 26 24 22 22 23 26 27 29 28 27 27
25 25 24 24 25 26 25 23 22 21 22 22 22 21 20 20 20 21 21 20 18 17 18 18 16 16 15 15 14 14 15 16 17 18 18 18 18 19 20 22 23 22 23 20 20 27 30 30 31 31 29 28 26 23 21 22 25 27 28 27 27 28
24 25 25 25 25 26 25 24 22 22 22 22 22 22 21 20 19 21 21 18 17 16 15 16 15 14 13 14 15 15 15 16 17 18 18 18 18 19 20 22 23 22 21 18 18 25 30 29 31 32 31 30 27 24 22 22 23 25 27 26 27 28
23 25 26 26 25 25 25 24 23 23 23 21 22 22 21 20 19 20 20 18 17 15 14 14 13 11 11 14 15 15 15 16 17 17 18 18 19 19 20 21 22 22 20 18 16 21 28 28 30 33 32 31 29 26 24 23 23 24 26 25 27 29
23 24 25 26 27 26 25 24 25 25 23 22 23 22 21 21 21 20 19 18 16 15 14 12 11 10 11 13 13 14 15 15 16 17 18 18 19 20 20 21 21 22 21 19 16 19 25 28 30 32 33 30 29 27 24 22 23 24 24 25 28 29
23 23 24 25 27 26 25 26 27 25 23 23 24 22 20 20 20 18 16 16 16 16 16 14 13 11 12 13 12 13 14 15 15 15 16 16 17 19 20 22 22 22 21 20 18 18 22 27 31 33 33 31 29 26 23 23 23 23 23 24 27 29
22 23 23 24 25 24 25 27 28 26 24 23 24 22 20 21 20 17 16 17 18 18 17 15 15 14 14 15 14 14 14 17 17 15 15 15 16 18 19 21 21 21 22 21 20 19 19 23 29 33 33 32 30 28 26 25 23 23 23 24 27 29
22 23 24 25 25 25 26 27 28 26 25 24 23 22 22 22 21 19 20 20 19 19 18 16 16 16 16 17 16 16 17 18 17 15 15 15 15 16 18 20 21 21 21 21 20 19 18 20 26 31 33 32 31 30 28 27 25 24 23 23 25 27
22 23 24 24 24 25 25 26 27 26 25 25 25 24 23 23 22 22 22 19 19 19 19 18 17 18 18 18 18 18 19 19 16 15 16 16 15 15 17 19 20 21 21 22 21 19 19 20 24 29 33 34 33 31 30 30 28 26 25 24 24 25
21 22 22 22 22 22 23 24 25 25 25 25 26 26 25 25 25 24 23 21 20 21 20 20 20 20 20 20 20 20 20 21 18 17 17 16 16 15 17 19 20 21 21 23 22 20 19 20 23 27 33 35 35 33 32 32 30 29 27 26 25 25
20 21 21 21 20 20 21 21 22 24 25 25 26 27 26 26 27 25 25 23 22 22 21 22 22 21 21 21 22 22 22 23 21 19 18 17 16 16 16 16 18 20 21 23 24 23 21 21 22 25 31 35 37 37 35 34 33 32 30 28 27 26
20 21 21 20 20 20 20 20 22 23 24 26 27 27 27 28 28 26 25 25 24 23 23 23 24 23 23 23 23 24 24 24 23 21 20 19 18 16 14 13 15 18 21 22 24 26 25 23 22 23 28 33 37 39 39 37 36 34 32 30 29 27
20 20 21 21 21 21 21 21 22 24 24 25 27 28 28 29 29 27 25 25 26 25 24 25 26 26 25 25 25 24 25 25 25 24 22 21 20 18 16 15 15 16 20 23 24 26 28 27 25 25 26 29 34 39 40 40 39 37 34 33 31 29
19 20 21 21 22 22 22 22 23 25 25 26 27 28 28 29 29 27 26 27 26 26 25 25 27 27 27 25 24 24 24 25 25 25 24 23 22 20 19 19 18 18 20 23 25 27 28 29 28 28 28 28 32 36 40 42 41 40 37 36 34 31
21 20 21 21 22 23 23 24 24 25 26 26 27 28 28 29 28 27 28 27 26 26 26 26 27 27 27 24 23 23 24 25 25 26 25 24 23 22 21 21 20 20 21 23 26 28 29 29 28 29 29 29 31 34 38 42 43 42 41 39 35 33
22 21 21 21 22 23 24 25 25 26 26 27 28 29 29 29 29 28 28 27 26 26 26 26 26 26 26 24 24 24 24 24 25 26 25 25 24 23 22 22 22 23 23 23 25 26 28 29 29 30 30 30 32 34 37 40 43 44 43 41 37 35
23 22 22 22 23 24 25 25 26 27 27 27 28 29 29 29 30 29 28 27 26 25 25 24 25 25 25 24 23 24 24 24 25 25 25 25 25 24 23 23 24 24 24 24 24 24 26 28 29 30 30 31 32 35 37 39 41 43 44 43 40 38
23 22 22 23 25 25 26 26 27 28 28 27 27 28 29 30 30 29 28 28 26 25 25 25 25 26 24 23 23 23 24 24 24 25 26 26 25 25 24 24 24 24 25 25 24 24 25 26 27 28 30 31 31 33 36 38 39 40 42 43 42 41
24 23 24 24 25 26 27 27 28 28 28 27 27 28 29 30 30 30 29 28 27 26 26 26 26 26 25 24 24 24 24 24 25 25 26 26 26 25 24 24 24 25 26 26 25 25 26 26 27 28 29 29 30 30 31 35 37 39 40 41 43 43
25 25 26 25 25 25 27 28 28 29 29 28 27 27 29 30 30 30 30 29 27 27 27 27 27 27 26 25 25 25 25 24 25 25 26 26 25 25 23 23 25 26 27 27 27 26 26 27 27 27 28 27 29 29 28 32 36 39 40 39 39 43
25 25 26 26 25 24 25 27 28 28 28 28 28 28 28 29 30 31 30 30 29 28 28 28 28 28 27 27 27 26 26 25 25 26 26 25 23 23 24 25 26 26 26 27 27 26 27 28 27 27 29 29 29 29 29 30 35 38 40 39 37 39
24 24 24 25 25 24 23 24 25 26 27 28 28 29 29 29 30 31 31 31 31 30 30 30 29 29 29 29 28 28 27 26 26 26 27 26 24 25 25 25 25 25 25 26 27 29 30 29 28 27 28 29 28 28 27 27 32 37 40 40 38 37
25 24 24 25 26 25 23 23 24 25 25 26 27 28 30 30 31 32 32 32 32 31 31 31 30 30 30 29 29 29 28 27 27 27 27 27 26 26 26 25 25 26 26 26 28 31 31 30 29 27 27 27 26 25 22 20 24 31 36 38 39 40
28 26 25 25 26 26 24 24 25 25 25 25 26 27 28 30 31 31 32 32 32 31 31 30 30 30 30 29 29 29 28 28 28 28 28 28 27 27 27 27 27 28 27 28 29 31 31 30 31 29 28 28 27 25 22 18 18 22 29 35 39 42
31 29 28 26 26 27 26 26 26 26 26 26 26 26 27 28 29 29 30 30 30 30 30 30 29 29 29 29 29 29 29 29 28 29 29 29 28 28 28 28 28 28 28 28 29 30 29 29 31 31 30 30 29 27 25 22 19 18 22 28 35 40
34 32 30 28 27 27 26 27 27 26 26 26 26 26 26 27 28 29 29 30 30 29 29 28 28 28 28 28 28 29 29 29 29 29 29 29 29 29 28 28 28 28 29 28 29 29 28 28 30 31 30 30 29 28 26 23 19 17 18 20 25 33
36 34 31 29 29 29 27 26 28 27 26 27 27 26 26 27 27 28 28 29 29 28 28 27 27 26 26 26 26 27 28 28 29 29 28 29 28 28 28 27 27 28 28 28 28 29 29 29 30 30 30 30 29 28 27 23 19 16 17 16 17 21
37 35 32 30 30 29 27 27 27 26 26 27 27 26 26 27 27 27 27 28 27 26 26 25 25 25 24 24 24 25 26 26 27 28 27 28 28 28 28 27 27 27 27 27 26 28 28 29 29 30 30 30 30 30 28 26 23 20 19 19 19 20
38 36 31 29 30 29 28 27 26 25 25 26 26 26 26 26 27 27 26 26 25 25 24 24 23 23 23 23 23 23 23 24 25 26 26 27 27 27 28 27 26 26 27 26 25 26 27 28 28 28 29 30 30 31 30 30 29 28 28 26 25 24
38 35 31 29 30 29 28 27 25 24 24 24 25 25 25 25 25 25 25 24 24 23 22 22 22 22 22 22 22 22 22 22 23 24 25 25 26 26 26 26 25 25 26 25 24 25 25 26 27 27 27 28 29 30 30 30 31 32 31 29 26 25
37 33 32 30 29 28 27 25 24 24 23 23 24 23 23 23 23 23 23 22 21 21 20 20 20 20 20 20 20 20 20 21 22 22 23 23 24 25 25 24 24 23 24 24 24 23 24 25 25 26 26 26 27 28 29 29 30 30 30 28 26 25
35 30 28 27 27 26 25 23 23 23 22 22 22 22 22 21 21 21 20 20 19 19 19 18 18 19 19 19 18 18 19 20 21 21 22 22 22 23 23 23 22 22 22 23 23 22 23 23 24 24 24 24 25 25 26 27 27 27 26 25 24 23
32 26 25 25 26 26 24 23 23 22 21 21 21 21 21 21 20 20 19 19 18 18 18 17 17 18 18 18 17 17 17 17 19 20 21 21 21 22 22 22 21 21 21 21 22 21 22 22 22 23 23 23 23 23 23 24 24 24 23 22 22 22
29 25 24 25 27 27 26 25 24 23 21 20 21 21 21 21 21 20 19 19 19 18 18 18 18 18 18 17 16 16 16 16 17 18 19 20 20 21 21 21 21 20 19 20 20 21 21 21 21 21 21 21 21 21 21 21 22 22 22 21 20 20
28 26 25 25 26 26 26 25 23 22 21 19 19 20 20 20 20 20 19 19 19 18 18 18 18 18 17 17 16 15 15 15 16 16 17 18 18 18 19 19 19 19 18 18 19 19 20 20 20 20 20 19 19 20 20 20 20 20 21 20 19 18
28 26 25 25 26 25 25 24 23 22 21 20 19 19 19 19 19 19 18 18 18 17 17 17 17 17 17 17 16 15 15 15 15 16 17 17 17 17 17 17 17 17 17 17 18 18 19 19 20 20 20 19 19 19 19 19 19 19 19 18 17 17

ECMWFFLT2_500_spd_015.txt.gz
Wind_Speed
14 14 15 16 16 17 17 18 18 19 18 19 19 19 20 20 20 21 20 20 19 19 20 20 20 19 19 19 19 18 18 18 18 17 17 17 16 15 14 13 12 11 12 13 14 16 17 18 19 20 21 22 24 25 26 25 22 21 24 28 28 27
12 13 14 15 16 16 17 18 18 18 18 18 19 19 20 20 21 21 21 20 19 19 19 19 19 19 19 18 18 17 18 18 18 18 18 17 16 14 14 13 11 10 11 12 13 15 16 18 19 20 21 21 23 25 26 27 24 21 23 27 30 29
11 12 13 14 15 16 17 18 18 18 19 18 18 19 19 20 20 21 21 21 20 19 19 18 18 19 19 18 18 17 18 19 19 19 19 17 15 14 13 12 11 10 10 11 12 14 16 18 19 20 21 22 22 24 26 27 25 22 22 26 29 30
10 11 12 13 14 16 16 17 18 19 19 19 19 19 19 20 20 21 22 21 20 19 18 17 17 18 19 19 18 18 18 19 19 19 18 16 14 13 12 11 10 10 10 11 12 13 15 17 19 20 22 23 24 25 27 27 27 24 23 25 28 30
10 11 11 12 14 15 16 17 18 19 19 20 20 20 20 21 21 21 22 21 20 18 17 16 16 17 18 18 19 18 17 17 17 17 16 16 15 13 12 11 10 11 11 11 12 12 14 16 17 19 20 23 25 27 27 27 28 26 24 25 27 29
11 12 12 13 14 15 16 17 18 19 20 20 20 21 21 22 21 21 21 21 20 19 17 16 15 15 16 17 16 16 15 15 16 16 15 15 15 14 13 12 12 12 13 13 13 13 14 16 16 17 18 20 23 27 27 26 27 27 25 25 26 28
10 11 12 14 15 16 17 18 19 19 19 20 21 21 22 22 22 21 21 20 20 18 16 15 14 14 15 15 15 14 15 15 15 15 14 13 14 15 14 14 14 14 15 15 15 15 16 17 17 17 17 18 21 24 25 25 27 27 27 26 26 28
10 11 13 14 16 17 18 19 18 19 19 20 20 20 20 21 22 22 21 19 19 18 15 14 14 15 16 16 16 15 15 14 13 13 12 12 14 15 15 15 15 15 15 15 15 16 17 17 17 17 17 18 19 21 23 24 27 28 28 29 27 27
11 12 13 14 16 17 18 19 19 19 19 19 19 20 20 21 21 21 20 19 18 17 15 14 14 15 16 16 16 15 14 13 11 11 11 11 12 14 14 15 15 15 14 14 15 16 17 18 18 17 17 18 18 19 21 23 27 29 30 31 29 27
13 13 14 14 15 17 18 18 19 19 18 19 19 19 20 20 20 20 19 19 17 15 14 14 14 15 15 16 16 15 14 13 12 12 11 12 13 13 14 15 16 14 14 14 14 16 17 18 18 17 17 18 18 18 20 22 26 29 32 33 30 27
14 15 15 14 15 15 16 17 18 17 17 17 18 17 18 18 19 19 18 17 16 15 14 14 14 14 14 15 16 15 14 14 14 13 13 14 15 16 16 16 16 14 14 14 14 15 17 19 18 17 17 18 18 18 19 21 24 27 32 34 33 29
14 16 16 15 15 14 14 15 16 16 16 16 16 16 15 16 17 17 16 16 15 15 14 13 13 14 13 13 15 13 12 12 13 13 13 14 16 17 18 17 16 16 15 15 14 14 15 17 17 17 17 17 17 17 18 21 22 25 30 34 35 31
14 15 16 15 15 14 14 14 14 15 16 16 16 16 15 15 15 15 15 15 15 14 14 13 13 14 13 13 12 12 11 11 13 13 13 14 17 19 19 18 18 17 16 15 15 14 13 14 15 16 17 17 17 17 17 19 21 23 27 33 34 32
14 15 15 15 15 15 15 15 15 16 16 17 17 18 18 16 15 15 15 15 15 14 13 13 13 13 12 13 12 11 11 13 14 15 14 15 18 21 21 19 18 17 17 16 16 15 14 14 14 15 15 16 17 17 16 16 18 21 25 32 34 33
15 16 15 15 14 13 14 14 15 16 17 18 18 19 19 19 18 17 17 15 14 14 14 14 14 13 12 12 12 11 12 14 15 15 15 17 19 20 19 17 16 17 18 17 16 16 16 15 14 14 14 15 16 17 17 17 18 19 22 28 33 34
16 16 15 14 13 13 13 13 14 14 15 17 18 18 19 20 19 19 18 17 16 15 15 14 13 13 12 11 11 11 13 15 14 14 15 17 18 17 15 14 15 16 17 17 17 16 16 16 15 14 15 16 16 17 18 19 19 19 19 23 28 33
16 15 15 14 13 13 13 13 13 14 15 15 16 17 18 19 19 19 19 18 18 16 15 14 14 14 13 11 11 12 15 15 15 15 15 15 16 15 14 14 14 15 16 17 17 17 16 15 15 16 17 16 17 18 19 21 21 21 20 21 24 29
15 15 15 14 14 13 13 13 13 14 14 15 15 16 17 18 19 19 18 18 18 16 14 14 15 15 14 12 11 14 17 17 15 14 14 14 14 14 14 14 13 14 15 16 17 17 16 15 16 18 18 18 18 19 20 22 24 23 23 23 23 26
15 16 16 14 14 13 14 14 14 14 14 14 15 16 17 18 19 18 17 17 17 17 15 14 15 15 14 13 13 16 19 18 14 13 14 14 13 14 15 14 14 14 15 15 16 16 17 16 16 18 19 19 19 20 21 23 25 26 24 24 24 25
15 16 16 14 12 12 13 15 16 15 15 14 15 16 17 18 18 18 16 15 16 16 15 15 16 16 16 15 16 18 20 20 18 16 16 16 14 14 15 16 15 15 15 15 16 16 17 17 17 19 20 20 20 21 21 22 23 25 26 24 24 25
16 16 16 13 11 10 10 13 15 17 17 16 16 17 17 18 18 18 16 15 15 15 15 14 15 17 18 18 18 18 20 21 21 20 19 18 17 17 17 17 17 17 16 16 16 17 17 17 17 18 20 21 20 21 22 21 21 23 24 24 23 25
17 16 16 13 10 8 8 9 13 16 18 17 17 17 18 18 19 18 17 16 15 15 15 15 16 17 17 18 19 19 20 20 21 20 20 19 19 19 18 18 18 18 18 17 17 17 17 17 16 16 18 20 20 20 21 20 18 19 21 22 23 24
18 17 15 12 9 7 7 8 12 15 16 17 17 18 19 18 18 18 18 17 17 16 16 16 16 17 17 18 18 19 20 20 20 20 20 19 19 19 19 19 19 19 19 18 18 18 17 17 17 17 18 18 19 19 19 18 17 18 19 20 22 23
20 18 15 11 8 7 7 8 12 16 16 17 17 17 18 18 18 18 18 18 18 17 16 16 16 16 16 17 17 18 19 19 19 19 19 19 19 20 20 20 19 19 20 19 19 19 18 17 17 17 18 18 18 19 19 20 20 20 20 20 22 23
21 18 14 12 10 7 6 8 12 15 16 17 18 17 17 18 18 18 18 18 18 18 17 17 16 16 16 16 17 18 18 19 19 19 19 19 19 20 21 21 21 21 21 21 20 20 19 18 18 18 18 19 19 19 20 21 22 21 20 21 22 23
18 17 15 13 12 9 7 7 10 13 14 16 17 17 16 17 17 18 18 17 17 17 17 17 17 17 17 17 17 18 19 19 19 20 20 20 20 21 21 21 21 21 22 22 22 21 20 20 19 19 19 20 19 19 20 21 22 22 22 21 22 22
15 15 15 15 14 12 10 8 10 13 14 15 15 15 15 16 16 17 17 18 18 18 17 17 17 17 17 17 18 18 19 19 20 20 20 21 21 21 21 21 21 21 22 22 22 22 21 20 20 19 19 20 20 20 20 21 22 22 22 22 21 21
18 15 17 17 16 16 14 11 11 13 15 15 15 15 15 15 16 16 17 17 18 18 18 18 18 18 18 18 18 18 18 19 20 20 20 21 22 22 22 22 21 22 21 21 21 21 21 20 20 20 20 20 21 20 20 21 22 22 22 22 21 21
24 21 22 21 19 20 19 15 13 13 16 17 17 17 17 17 17 17 16 17 18 18 19 19 19 18 18 18 18 18 18 19 19 20 20 21 21 21 22 22 22 21 21 20 20 20 20 20 19 19 19 20 21 20 20 21 21 22 22 22 21 21
29 31 27 23 22 24 23 20 17 15 16 18 19 19 19 19 19 18 17 17 18 18 19 19 19 19 19 19 18 18 18 18 19 19 19 20 20 20 20 20 20 20 19 19 19 19 19 19 18 18 19 19 20 19 19 20 21 21 21 21 21 21
32 34 25 22 24 27 27 25 21 17 17 20 21 20 20 20 19 19 18 18 18 18 19 19 19 19 19 19 18 18 18 18 18 18 19 19 19 19 19 19 19 18 18 17 17 17 17 18 17 17 17 18 18 18 19 19 20 21 21 21 21 21
33 32 22 23 26 27 29 27 23 20 19 21 22 21 20 20 19 19 19 18 18 18 18 19 19 18 18 18 18 17 17 17 17 17 17 17 17 18 18 18 17 17 16 16 16 16 16 16 17 17 16 17 17 17 17 18 19 20 20 20 20 20
34 34 30 31 29 28 30 29 27 23 21 22 23 22 20 19 19 19 18 18 18 18 18 18 18 18 18 17 17 17 16 16 16 16 16 16 16 15 15 15 15 14 14 14 14 14 15 15 16 16 16 15 15 15 16 16 17 19 19 19 19 19
29 31 34 35 31 32 33 30 29 27 24 23 23 22 20 19 18 18 17 16 17 17 18 18 18 18 18 18 17 17 16 16 15 15 15 15 15 14 14 13 13 12 11 11 11 12 13 13 14 15 15 14 14 14 15 15 15 16 17 17 17 18
25 27 32 34 32 33 34 31 30 28 25 22 22 21 19 19 18 17 16 15 15 16 17 17 17 17 17 17 17 17 16 16 15 15 14 14 14 14 14 12 11 10 9 9 9 9 10 11 12 13 13 13 13 12 13 13 13 14 15 15 15 15
27 29 30 30 30 31 33 32 30 29 25 21 21 20 19 18 18 17 15 14 14 14 15 16 16 16 16 16 16 16 16 15 15 14 14 13 13 13 13 13 11 10 9 8 8 8 8 9 10 11 11 12 12 11 11 12 12 12 13 13 13 13
29 28 26 27 28 29 32 32 31 29 25 22 21 20 18 17 17 17 15 13 14 14 15 15 15 16 16 15 15 14 14 14 13 13 13 13 13 13 13 13 12 11 10 9 8 8 8 8 8 9 10 10 11 11 11 11 11 11 11 12 12 12

ECMWFFLT2_500_spd_021.txt.gz
Wind_Speed
23 20 19 17 17 17 17 18 21 24 26 26 25 22 21 21 22 23 23 24 23 23 22 21 21 20 19 19 18 18 17 17 16 16 16 16 18 19 19 20 20 20 20 19 19 20 21 21 21 20 19 18 18 19 20 21 22 22 23 23 24 25
27 24 21 18 16 14 14 17 20 23 25 25 23 21 21 21 22 23 24 24 23 23 22 21 20 20 19 18 18 17 17 17 17 16 16 17 18 18 19 19 20 20 19 18 18 19 20 20 19 18 18 18 18 19 20 21 22 23 23 24 24 25
26 24 22 19 19 20 19 20 22 23 24 22 21 20 20 21 22 23 23 23 23 23 22 21 20 19 18 17 17 17 17 17 16 16 16 17 18 18 18 18 19 19 18 18 17 18 19 19 18 17 17 17 19 20 20 21 22 23 24 25 25 25
23 23 21 20 23 25 25 24 23 23 21 20 20 20 20 21 22 23 23 23 23 23 22 21 20 19 18 17 17 17 18 17 16 16 16 17 18 18 18 18 18 18 18 18 17 17 18 18 18 17 16 17 18 19 20 21 21 23 24 25 26 26
19 19 18 19 22 24 24 24 22 21 19 19 19 19 20 21 22 22 22 23 23 22 22 22 20 19 18 17 17 17 17 17 16 17 17 17 17 17 18 17 17 17 17 18 18 18 18 18 18 18 17 17 18 18 19 20 21 22 23 25 26 27
13 11 13 17 20 23 23 22 20 19 18 18 18 18 20 21 22 22 22 22 22 22 22 22 20 18 18 18 17 17 17 17 17 17 17 16 16 16 17 17 17 17 18 18 18 19 19 19 19 18 18 17 17 18 19 20 21 22 23 24 27 28
11 11 14 19 21 21 21 20 19 18 18 18 18 19 20 21 21 22 22 21 21 20 20 19 19 18 18 18 17 17 17 17 17 16 16 15 15 15 15 16 16 17 17 17 18 19 19 18 18 18 17 17 16 17 18 20 22 23 24 25 27 29
11 12 16 18 18 18 19 18 18 17 17 18 18 19 20 21 21 21 20 20 19 19 18 17 17 17 17 16 16 16 16 17 16 15 14 13 13 13 15 15 16 17 17 17 17 18 18 18 17 16 16 15 16 18 19 19 21 23 24 26 27 29
9 11 13 15 16 17 17 16 15 16 17 18 19 19 20 20 20 19 19 18 18 17 17 16 16 16 15 15 15 15 15 15 14 14 12 12 12 14 15 15 16 16 16 16 16 17 17 17 17 16 16 15 16 18 19 19 20 21 23 24 26 27
8 8 11 15 17 16 15 14 14 14 16 17 18 18 18 18 18 18 17 16 16 15 15 15 14 14 13 13 13 14 13 13 13 13 13 13 13 14 14 14 15 15 16 16 16 16 16 16 17 17 16 16 17 18 19 20 20 21 22 23 24 26
6 5 10 15 16 15 14 13 12 13 14 16 16 17 17 17 17 16 15 14 14 13 12 13 14 12 11 12 13 13 12 11 12 14 15 15 14 14 13 13 13 13 14 14 15 15 15 15 16 16 16 17 17 17 18 19 20 21 22 24 25 25
4 6 11 13 14 13 12 12 13 13 14 15 15 16 17 16 16 15 14 15 15 12 11 13 12 10 10 12 12 12 12 12 13 15 16 15 15 15 14 13 13 13 13 14 14 13 13 13 14 15 16 16 17 17 17 18 19 20 22 23 25 26
7 9 11 12 13 13 13 13 14 15 15 15 15 16 16 16 15 15 15 16 15 11 11 12 9 8 10 12 11 11 12 13 14 15 15 15 15 16 16 15 15 15 15 15 15 14 14 13 14 15 15 15 15 15 16 17 18 20 22 23 24 25
9 10 11 13 14 14 15 15 16 16 16 16 16 16 16 16 16 15 16 16 14 12 11 11 9 9 11 11 11 12 13 13 14 14 14 13 14 14 14 15 16 16 16 17 17 17 16 15 15 15 15 14 13 13 13 14 17 19 21 22 23 24
9 10 12 15 15 15 15 16 16 17 17 17 16 16 16 16 15 15 15 15 15 13 12 12 11 11 11 11 12 13 14 14 14 14 13 13 13 13 13 14 15 16 18 19 19 19 18 17 16 16 16 15 15 15 15 14 15 17 20 21 22 23
8 11 14 15 15 15 15 16 17 17 17 17 16 16 16 16 14 14 14 14 15 14 13 13 13 13 12 12 12 14 14 14 14 14 13 13 13 13 13 14 15 17 19 21 21 21 20 19 18 17 17 17 16 17 17 16 16 17 18 21 22 22
10 13 14 15 15 15 15 16 16 16 16 16 16 16 16 16 14 13 12 13 15 15 13 14 14 15 14 12 12 14 15 15 15 15 14 14 13 12 12 13 15 16 18 20 21 20 20 20 18 18 17 17 17 17 18 17 17 17 18 19 21 22
12 13 13 14 14 15 15 16 16 16 16 17 17 16 16 15 15 13 12 12 14 14 12 13 14 15 16 14 12 14 16 16 16 15 14 14 13 12 11 11 13 14 13 15 18 18 19 19 18 18 17 18 18 17 17 18 18 18 18 19 20 22
12 12 13 14 15 16 16 16 16 16 16 16 16 16 15 15 14 13 12 12 14 13 12 13 14 15 15 14 12 14 17 17 17 16 15 14 13 11 11 11 12 12 11 12 14 15 17 18 18 17 17 18 18 18 18 19 19 19 19 20 20 21
12 13 14 14 15 16 16 16 15 14 14 14 14 15 15 14 14 13 13 13 13 13 12 12 14 15 14 13 13 15 18 18 18 17 15 14 12 11 11 12 13 13 13 12 13 15 16 17 17 17 18 18 19 20 20 20 20 19 20 20 21 21
11 13 14 14 14 15 16 16 14 14 14 14 14 14 15 14 13 13 13 13 13 12 11 11 13 13 13 14 15 17 19 20 19 18 16 14 14 13 13 14 14 15 15 15 16 16 17 18 18 18 18 19 20 20 20 20 20 20 20 20 21 21
10 12 14 13 12 13 15 16 15 14 14 15 15 14 14 14 13 13 13 13 13 12 11 11 12 14 14 15 17 18 20 20 19 18 17 16 15 15 16 16 16 17 17 17 18 18 18 19 19 20 20 20 20 20 20 19 20 20 20 20 21 21
10 12 12 11 11 13 14 15 15 15 16 17 16 16 15 14 14 13 13 13 13 12 12 12 13 15 15 17 18 19 19 19 19 18 18 17 17 17 17 17 18 18 18 18 19 19 19 19 20 20 20 20 20 21 20 20 20 20 20 21 21 21
10 11 12 11 12 14 15 14 13 14 16 17 17 17 17 16 15 14 14 15 15 14 13 13 14 15 16 17 18 19 19 20 19 19 19 19 19 19 18 18 19 20 20 20 20 20 20 20 20 20 20 21 21 21 21 21 21 21 21 21 20 20
11 12 12 12 13 15 16 14 11 11 13 16 16 17 17 17 17 16 15 15 16 16 16 15 15 16 17 18 18 19 19 20 20 20 20 20 20 19 19 19 20 20 21 21 21 21 21 20 20 20 21 21 22 22 22 22 22 22 21 21 21 20
11 12 11 11 12 13 15 14 11 9 10 13 15 16 17 17 18 18 16 15 15 16 17 17 16 16 17 18 18 18 18 19 20 21 20 20 19 19 19 19 20 20 21 21 22 22 22 21 22 22 22 22 23 23 23 23 23 23 23 22 22 21
12 12 11 10 10 11 13 14 13 11 9 10 12 15 17 17 18 19 18 17 15 15 16 17 17 17 18 18 18 18 18 19 19 19 19 18 18 18 18 19 19 20 21 21 22 23 23 23 23 23 23 23 24 24 24 24 24 24 24 24 23 22
13 13 11 10 10 11 13 15 15 14 13 13 14 15 16 18 18 19 19 19 18 16 16 17 17 17 18 18 18 18 18 19 19 18 17 17 17 17 18 18 19 19 20 21 22 22 23 23 24 24 24 24 24 24 24 25 25 25 25 24 24 24
15 14 14 13 13 14 15 17 18 19 19 20 18 15 14 17 19 18 18 18 19 19 17 17 17 17 17 17 17 17 17 18 17 17 16 16 16 16 17 18 18 19 20 20 21 22 22 23 23 23 23 24 24 24 25 25 25 25 25 25 25 25
16 17 17 18 17 17 17 19 20 21 21 21 19 15 14 16 19 20 19 18 18 18 18 17 17 16 15 14 14 15 15 15 16 15 15 15 16 16 17 18 18 19 19 20 20 21 21 22 22 22 23 23 23 24 24 25 25 25 25 25 25 25
18 19 20 20 20 20 20 21 21 21 20 20 20 19 16 16 19 22 22 20 17 16 17 16 16 16 14 12 12 13 13 14 14 14 15 15 16 16 17 17 18 18 18 19 19 19 20 20 20 21 22 22 22 23 24 24 24 24 24 24 24 25
19 20 21 21 22 23 22 23 23 22 21 21 22 23 23 22 24 25 24 22 19 17 16 15 15 15 14 12 11 12 13 13 13 13 13 14 15 15 16 16 16 17 17 17 18 18 18 19 19 20 20 21 21 21 22 22 22 22 22 22 23 24
18 20 22 23 24 24 25 25 25 25 25 25 26 27 27 27 27 25 23 21 19 17 17 15 14 13 13 12 11 12 12 12 12 11 11 12 13 14 14 15 15 15 16 16 16 17 17 18 18 19 19 19 19 19 20 20 20 20 20 20 21 22
17 18 21 24 25 27 27 26 26 27 28 28 29 27 24 24 24 22 21 19 17 16 16 15 13 12 12 11 11 11 11 11 11 11 11 11 11 12 12 13 13 14 14 15 15 16 16 17 17 18 18 18 18 18 18 18 19 18 18 18 19 20
18 19 23 26 28 28 26 25 25 25 25 26 27 24 19 20 21 20 19 18 16 16 16 15 14 13 12 11 10 10 10 10 10 10 10 10 10 10 11 11 12 12 13 13 14 14 15 15 16 16 17 17 17 16 16 17 17 17 17 17 17 17
18 21 24 25 26 26 24 23 21 19 18 19 18 17 17 19 20 19 18 18 17 17 16 15 15 14 13 12 11 10 9 8 8 8 8 9 9 9 9 9 10 10 11 11 12 12 13 13 14 15 15 15 15 15 15 16 17 17 17 16 16 16
18 21 23 23 23 23 22 21 19 17 17 16 15 15 16 18 18 18 19 19 19 18 16 15 15 15 15 14 12 11 9 8 8 8 8 8 8 8 8 8 8 8 9 10 10 11 12 12 13 14 14 14 14 14 14 15 15 16 16 16 16 15

ECMWFFLT2_500_spd_027.txt.gz
Wind_Speed
17 16 14 14 14 13 13 14 14 13 13 13 15 18 19 20 20 20 20 21 23 23 24 24 24 24 22 20 18 16 15 15 16 16 17 18 19 20 19 19 18 18 19 20 21 21 21 22 23 24 24 24 23 22 21 20 20 19 19 18 19 19
15 13 12 12 13 13 13 14 15 15 14 14 15 17 20 21 21 22 22 23 24 25 26 25 25 23 21 19 18 16 15 15 15 16 17 19 20 20 20 20 19 18 18 19 20 21 22 23 24 25 26 25 24 23 22 22 21 21 20 20 21 21
13 11 11 12 14 15 14 14 14 15 14 14 16 17 19 20 22 22 24 25 26 27 27 25 24 22 20 18 17 16 15 15 15 16 17 19 20 20 20 20 19 19 18 18 19 20 21 23 24 25 26 26 25 24 23 23 22 21 22 22 22 22
11 11 11 13 15 17 17 15 15 16 15 15 16 18 19 20 22 23 25 27 28 27 26 25 23 21 19 18 17 16 16 15 16 16 17 18 18 19 19 19 19 19 18 18 18 19 20 21 22 24 26 26 26 26 25 24 22 22 22 23 24 23
10 11 12 14 15 17 18 16 16 16 15 16 17 18 19 21 23 24 26 27 28 27 26 24 22 20 18 17 17 16 16 15 16 16 16 16 17 18 18 18 19 19 18 17 16 17 18 20 21 23 25 26 26 27 26 25 24 23 23 24 24 24
10 12 15 16 15 17 18 16 16 16 16 18 18 19 20 22 23 25 26 26 26 26 25 23 21 19 17 17 17 16 16 16 16 16 16 16 16 16 17 17 18 18 18 16 16 16 17 18 20 22 23 25 26 27 27 26 25 25 25 24 24 24
12 15 17 18 17 16 16 15 15 17 19 20 20 21 21 21 23 24 25 25 25 24 23 22 19 18 17 17 17 16 16 16 16 16 16 16 16 15 16 17 18 18 18 17 16 16 17 18 19 21 22 23 24 25 26 26 26 25 25 24 24 23
16 18 18 17 16 15 14 14 15 17 18 19 20 19 19 20 21 23 24 25 24 22 21 20 18 17 16 16 16 16 15 15 16 16 16 16 16 16 17 17 18 18 18 17 17 17 17 18 18 19 21 23 23 24 25 26 26 25 25 24 23 23
16 14 13 12 13 13 14 14 14 16 18 18 17 17 18 19 20 21 22 22 21 20 20 18 17 17 16 17 17 16 16 16 16 16 16 17 17 17 17 17 17 17 17 17 17 17 17 18 18 19 21 22 23 23 24 25 25 25 25 24 24 24
13 11 11 11 13 14 14 13 13 15 15 15 15 16 17 18 19 21 21 19 19 19 18 17 17 17 17 16 16 17 17 17 17 16 16 17 17 17 16 16 15 16 16 16 16 16 17 17 17 19 20 21 22 23 24 25 26 26 26 26 26 26
11 13 13 13 13 12 11 11 12 13 12 12 13 15 16 17 19 20 18 17 18 18 17 16 16 16 16 16 15 16 16 17 16 16 16 16 16 16 16 15 15 15 15 15 15 14 15 16 17 18 18 19 19 21 23 24 26 27 27 27 27 27
12 13 12 12 11 9 9 10 11 11 11 12 13 15 16 17 18 17 15 16 18 16 15 15 15 15 15 15 15 15 16 17 16 15 15 16 16 16 16 16 15 15 14 14 13 13 13 14 15 16 16 17 18 19 21 22 24 26 27 27 27 27
15 13 13 13 12 11 11 10 9 9 11 12 15 17 16 16 17 15 13 16 17 14 13 13 14 14 13 14 14 15 16 17 16 15 15 16 16 17 17 16 15 15 14 14 13 12 12 13 14 16 16 17 18 19 20 21 23 24 25 26 26 27
14 13 14 13 13 13 12 9 8 9 11 13 16 16 14 15 15 13 13 16 16 13 12 12 12 13 13 13 14 15 16 16 16 16 15 16 17 17 17 17 16 15 15 15 14 13 13 13 14 15 16 17 18 19 19 20 21 22 23 24 25 26
12 12 13 14 13 12 11 9 9 10 12 13 15 14 12 14 15 12 12 15 14 12 12 12 12 12 13 13 13 14 16 16 16 16 15 15 17 18 18 18 17 16 16 16 16 16 16 15 16 16 16 17 18 18 19 19 20 20 21 22 23 24
13 13 13 13 13 12 10 9 10 11 12 13 14 12 11 13 14 12 13 14 13 12 12 12 12 12 13 13 13 13 15 16 15 16 15 15 17 18 18 18 18 17 17 17 17 17 17 18 18 18 18 18 18 18 19 19 20 20 20 21 21 22
15 14 13 12 12 11 9 10 10 11 11 12 13 12 11 11 12 11 12 13 13 12 12 12 12 12 13 13 13 13 14 15 15 15 16 16 17 18 18 18 19 18 17 17 17 18 18 18 19 19 19 19 19 20 20 20 21 21 21 21 21 21
15 15 15 15 14 10 9 10 10 9 10 10 11 11 11 11 10 10 11 11 11 11 12 12 13 13 12 13 14 14 14 15 16 16 16 16 17 19 19 18 18 18 17 17 17 18 18 19 19 20 21 21 21 21 21 21 21 21 22 22 22 22
15 16 18 17 14 10 10 9 8 8 9 9 10 11 12 12 11 10 10 10 10 11 11 12 13 13 12 13 14 14 15 15 16 17 17 17 18 19 19 19 18 18 18 17 18 18 19 19 20 21 22 23 24 23 22 22 22 22 23 23 23 23
15 16 16 15 13 12 11 9 8 9 9 9 10 11 12 12 11 10 10 10 10 11 11 12 14 14 13 13 14 15 15 16 16 17 17 17 18 19 19 19 19 18 18 18 18 18 18 18 19 20 21 22 23 23 22 22 22 22 22 23 23 23
13 15 16 14 14 13 11 10 10 9 9 10 11 12 12 12 12 11 9 9 10 11 11 12 13 14 14 14 15 15 15 16 17 18 18 18 19 19 19 19 19 18 18 18 18 18 18 19 18 17 17 19 21 21 20 19 20 21 22 22 23 22
13 15 15 14 14 13 12 12 11 10 10 10 12 12 13 13 13 11 10 9 8 9 10 12 13 14 14 14 15 15 15 16 17 18 18 18 19 19 20 19 19 19 18 18 18 19 19 19 18 17 16 18 19 20 19 18 19 20 21 22 22 22
14 15 14 14 15 14 14 13 12 10 10 11 12 14 15 15 13 12 10 9 8 8 9 10 12 13 14 14 15 15 16 16 17 18 18 18 18 19 20 20 20 19 19 19 19 20 21 20 19 20 19 18 18 18 19 18 18 19 20 21 22 22
14 14 14 15 15 15 15 14 13 12 11 12 14 15 16 15 13 11 10 10 9 9 8 9 10 12 13 14 15 15 16 16 17 17 18 18 19 19 19 20 20 20 20 20 21 22 23 22 21 22 21 20 19 18 19 19 19 20 20 21 21 22
14 14 14 14 15 15 16 16 15 13 13 14 16 17 16 15 13 11 10 10 10 10 10 9 9 10 12 13 15 15 16 17 17 17 18 19 19 18 18 19 19 20 21 22 23 23 24 24 23 22 22 22 22 21 20 19 20 21 20 20 21 21
13 14 14 14 15 16 16 17 16 15 15 16 17 18 18 15 13 11 10 10 12 13 13 12 11 11 11 13 14 15 16 17 17 18 18 18 19 19 19 19 20 21 23 23 24 24 24 24 24 23 24 24 23 20 19 19 21 21 21 21 21 21
13 14 14 15 15 16 17 16 16 16 17 18 18 19 18 16 13 12 11 11 13 16 17 16 14 12 12 13 14 16 17 17 18 18 19 19 19 20 20 21 21 22 23 23 24 24 24 25 25 24 25 25 23 19 19 21 22 22 23 23 22 22
14 14 15 16 16 17 16 15 16 17 17 17 17 17 17 16 15 15 15 15 17 18 18 18 16 14 13 13 14 15 17 18 19 19 20 20 20 21 21 22 22 23 23 23 23 23 24 25 25 25 25 25 25 24 23 23 23 23 24 24 24 24
16 17 17 18 18 18 17 16 17 18 18 16 14 14 16 17 18 19 19 19 19 18 18 18 16 14 13 13 14 16 17 19 19 20 20 21 22 22 22 23 23 23 23 23 23 23 23 24 24 25 25 25 26 26 25 24 24 24 24 25 25 25
18 19 19 20 20 19 19 18 18 18 18 16 14 14 15 17 19 21 22 22 20 18 17 18 17 16 16 17 17 17 18 19 20 21 21 22 23 24 24 24 24 24 24 24 24 24 24 24 24 24 24 25 25 25 25 25 25 24 24 25 25 25
20 20 21 21 21 20 19 18 18 19 20 20 18 17 17 18 20 23 24 24 22 19 18 19 20 21 22 21 19 18 18 19 21 22 22 23 23 24 25 25 25 25 25 25 25 25 25 25 24 24 24 24 25 25 25 25 24 24 24 24 24 25
21 21 22 21 20 19 18 18 18 20 22 22 22 20 20 20 22 24 25 24 24 22 21 21 22 23 24 22 20 18 18 19 20 21 22 23 24 24 25 26 27 27 27 26 26 26 26 25 25 24 24 24 24 24 24 24 23 23 23 22 23 23
24 24 23 22 21 20 19 19 20 22 23 24 24 23 22 22 24 25 26 25 26 26 25 24 23 24 24 22 19 18 18 18 19 20 21 22 23 24 25 26 27 28 28 27 27 26 25 25 24 23 23 23 22 22 22 22 21 21 20 20 20 20
27 26 23 22 21 21 21 22 22 23 24 24 25 24 23 23 25 25 26 26 27 28 28 26 24 24 23 21 18 17 17 17 17 17 19 20 22 23 25 26 27 28 28 28 27 27 25 24 23 23 22 21 21 20 20 19 19 18 17 17 17 17
24 21 21 21 20 20 21 22 23 23 23 23 24 24 24 24 24 24 25 25 26 26 25 23 22 22 21 19 17 16 15 15 15 15 17 18 20 22 24 25 27 27 28 28 27 27 26 24 23 23 22 21 20 19 18 18 17 16 15 14 14 14
18 17 18 21 21 20 20 21 21 21 21 21 22 22 21 19 19 20 21 20 19 18 17 17 18 20 19 17 15 15 14 14 14 15 16 17 19 21 22 24 25 26 27 27 26 26 26 25 24 23 23 22 21 19 18 17 16 15 14 13 12 12
18 16 16 18 19 19 19 20 20 19 18 18 16 16 15 14 14 15 17 16 14 14 14 15 17 18 17 15 14 14 13 14 14 15 16 17 18 19 21 22 23 24 24 24 24 24 24 24 23 22 22 21 20 18 17 16 15 14 13 12 12 11

ECMWFFLT2_500_spd_030.txt.gz
Wind_Speed
23 22 20 20 21 21 22 22 22 22 20 17 19 22 27 30 26 23 23 23 23 23 23 22 22 21 20 20 19 18 18 17 17 16 16 16 16 16 16 16 17 17 18 18 19 20 21 22 23 23 23 22 22 21 20 20 19 19 19 18 17 17
22 20 19 20 21 20 20 20 20 20 20 18 18 19 22 23 21 22 23 23 23 23 22 22 22 21 21 21 19 18 17 17 16 16 16 16 16 16 16 16 17 17 18 18 19 20 21 22 24 25 24 24 23 22 22 21 21 21 21 20 19 18
19 18 18 18 19 19 18 17 17 21 22 19 21 22 21 20 20 23 24 24 24 23 23 22 22 22 22 21 19 18 17 17 17 17 16 16 16 16 16 16 17 17 17 17 18 19 20 21 23 26 26 25 24 24 23 23 23 23 22 21 20 20
17 17 18 17 17 18 18 17 20 24 21 18 21 21 18 18 19 22 24 24 24 24 24 23 23 23 21 19 18 17 16 16 17 17 17 17 16 16 16 16 16 17 17 17 17 18 19 21 23 25 26 26 25 25 25 25 25 25 24 23 22 21
16 16 17 17 17 18 18 19 22 22 17 16 17 14 15 16 18 22 24 24 24 24 25 24 23 22 20 18 17 17 16 15 16 17 16 17 17 16 16 16 16 16 17 17 17 17 18 20 22 24 24 25 25 25 26 26 26 26 25 24 23 22
14 15 16 17 15 14 16 19 19 16 13 14 14 12 14 17 20 22 21 20 21 23 25 26 24 21 18 16 17 17 16 16 16 17 17 17 17 17 16 15 15 16 17 18 17 17 17 19 22 23 23 23 24 25 26 26 26 26 25 25 23 22
13 14 15 14 13 13 14 16 15 14 15 17 18 16 15 17 19 17 17 17 18 20 20 21 21 18 17 16 16 17 16 16 16 17 17 18 17 17 16 16 16 16 17 17 17 17 17 19 20 21 22 22 23 24 25 26 26 26 26 25 24 22
13 13 14 14 16 15 15 15 14 15 17 19 20 19 18 18 17 15 18 18 17 17 15 16 18 16 16 17 17 17 17 16 16 17 17 18 17 17 16 16 16 16 17 17 17 17 17 19 20 20 21 22 23 23 24 25 25 25 26 26 24 23
12 12 14 16 17 17 16 16 15 15 16 17 18 19 19 17 17 18 20 19 17 18 16 17 19 17 16 17 16 16 16 16 16 17 17 17 17 17 16 16 16 16 16 16 16 17 17 18 19 20 20 21 21 22 23 24 24 25 25 26 25 23
13 13 15 15 15 17 17 16 16 17 18 18 17 18 18 17 18 19 18 18 18 18 17 17 18 16 15 15 15 15 15 15 16 17 18 17 17 16 16 16 16 16 16 16 16 16 17 18 18 18 19 20 21 21 22 23 23 24 24 25 24 23
13 14 14 14 14 15 15 15 17 18 17 17 16 16 15 16 17 15 15 17 17 17 17 17 17 15 13 14 14 14 14 14 15 16 17 17 16 15 15 16 16 15 15 15 15 15 16 16 17 17 18 19 20 22 23 23 24 24 24 24 24 23
12 13 13 13 12 13 13 15 16 15 13 13 13 13 13 14 14 12 13 15 15 16 16 16 15 13 12 12 12 12 13 13 14 14 14 14 14 15 15 15 16 15 14 14 14 15 15 16 16 17 17 19 20 22 23 24 25 25 25 25 25 25
11 11 12 13 13 14 14 14 14 15 14 14 13 13 12 12 11 10 10 12 14 13 13 13 12 11 10 10 10 10 12 13 12 12 14 14 14 14 14 14 14 14 14 14 14 15 16 16 17 17 17 18 20 21 22 24 24 25 26 26 27 27
12 12 13 15 16 15 15 15 15 16 16 15 14 13 11 10 10 10 9 10 12 11 11 11 9 9 9 9 9 9 11 12 12 12 13 13 13 13 13 14 14 14 15 15 15 15 15 15 16 17 18 19 19 20 21 22 23 24 25 25 25 26
13 12 13 14 15 15 15 16 16 16 15 15 14 12 10 10 10 10 8 9 9 9 9 9 8 7 7 7 7 8 10 12 12 12 12 13 13 13 14 14 14 14 15 16 16 16 15 15 15 15 17 18 19 20 21 21 22 23 24 24 24 24
13 12 12 11 12 14 15 15 16 16 15 15 13 11 10 9 9 8 7 7 7 8 8 7 6 6 6 7 8 8 9 10 11 12 12 13 13 13 14 14 14 14 15 16 16 16 16 15 15 16 17 18 19 19 20 20 21 22 23 23 23 23
11 12 13 12 11 12 13 14 14 15 16 16 14 12 10 9 8 7 6 6 7 8 8 8 6 5 7 8 8 8 9 9 10 12 13 14 13 14 14 14 14 14 15 15 15 15 15 15 16 17 18 18 18 18 19 19 20 21 22 22 22 22
9 12 14 14 12 12 13 14 13 15 17 16 14 13 12 11 9 8 7 7 8 9 8 8 6 5 6 7 8 8 9 9 10 11 13 14 14 14 15 15 15 14 15 15 15 14 14 15 16 18 18 17 18 18 19 20 21 21 22 22 22 21
9 12 14 14 13 14 15 13 13 16 18 17 15 13 13 13 11 10 9 8 8 9 8 7 6 6 6 7 7 8 9 10 10 11 13 14 14 15 14 14 15 15 15 15 15 15 15 15 16 17 17 17 18 18 20 22 23 23 23 23 23 23
9 11 12 13 13 14 13 12 14 17 18 17 16 14 13 12 12 11 10 9 9 9 9 8 7 7 7 7 7 8 9 10 11 12 13 15 15 16 16 15 15 16 15 15 15 16 16 16 16 16 16 16 17 17 19 21 23 23 24 24 25 25
9 10 10 11 12 12 12 13 16 18 17 16 15 14 13 12 11 11 11 11 10 10 10 9 9 8 8 8 8 9 10 10 11 12 14 15 16 17 17 17 17 16 16 16 16 17 17 16 16 16 15 15 15 15 16 17 19 21 22 23 24 26
11 11 11 11 12 12 13 15 16 17 16 15 14 13 13 11 11 11 10 10 10 10 11 11 10 10 9 9 9 9 10 10 11 12 14 15 15 17 18 18 17 17 16 17 17 17 17 17 16 15 16 15 15 15 15 16 16 18 19 20 22 23
12 13 13 13 13 14 15 16 16 15 14 13 13 12 11 11 12 12 11 9 8 8 9 10 11 11 11 10 10 10 10 11 12 12 14 15 16 16 17 17 16 17 17 17 17 18 18 18 17 16 16 17 17 17 17 17 17 18 19 19 19 20
14 15 16 16 15 16 16 16 14 13 13 12 12 12 12 12 12 12 11 10 9 8 7 7 9 10 11 12 12 11 11 11 12 13 14 15 16 16 16 16 16 17 17 17 18 19 20 19 18 17 17 18 19 19 19 18 17 17 18 18 19 19
17 18 19 19 18 18 17 16 14 13 12 12 12 13 13 13 12 12 11 10 8 8 6 5 6 8 10 12 12 12 12 12 13 14 15 15 16 17 17 16 16 17 17 17 18 19 20 20 19 18 19 20 20 20 19 18 18 18 18 18 18 19
19 20 20 20 19 19 18 16 15 14 12 11 12 13 14 14 13 12 11 10 9 8 7 7 7 8 9 10 12 13 13 12 13 14 15 16 16 17 17 17 17 18 18 18 18 18 19 20 20 20 21 21 20 20 19 18 19 19 18 17 18 19
21 21 21 21 20 19 18 16 15 14 12 11 12 13 14 13 13 12 11 11 11 10 10 11 11 10 10 11 12 13 13 13 13 13 14 15 16 17 18 19 18 19 19 19 19 19 20 21 21 22 23 22 22 21 20 19 18 17 17 18 19 20
21 21 22 22 21 19 17 16 16 15 13 12 13 14 13 12 11 11 12 13 13 13 13 13 13 12 12 12 12 12 13 13 13 13 14 15 16 17 18 19 20 20 20 20 20 20 21 22 22 23 23 23 23 22 21 20 19 18 19 21 21 21
21 22 22 22 21 19 17 17 16 15 14 13 14 14 13 11 11 12 14 15 15 15 15 15 15 15 14 13 13 13 13 14 15 16 16 16 16 17 18 19 20 21 21 22 21 21 21 22 23 23 23 23 23 22 21 20 20 20 21 22 23 22
22 23 23 23 21 19 18 17 17 16 15 15 15 15 14 14 13 14 15 17 17 17 17 17 17 16 16 15 15 16 16 18 19 20 19 18 17 17 18 19 20 21 22 23 23 23 22 22 22 22 22 22 22 22 22 22 21 22 22 23 23 23
26 26 25 24 22 20 19 18 18 17 16 16 16 16 17 17 17 18 19 20 20 20 20 19 19 18 17 17 17 18 19 19 20 20 20 20 19 18 19 19 20 21 22 23 24 24 24 24 24 23 23 22 21 22 22 22 22 22 22 22 22 22
29 29 27 24 21 20 20 20 18 18 17 17 17 17 18 19 19 20 21 22 22 23 22 22 21 21 20 20 20 20 20 20 20 20 20 20 19 18 18 18 19 20 21 23 24 25 25 25 25 25 24 23 22 22 22 22 22 22 21 21 21 21
28 28 25 21 19 20 20 19 18 17 18 18 18 18 19 20 21 22 23 24 25 25 25 24 24 24 23 23 23 23 22 21 20 20 19 19 19 18 17 17 18 19 20 21 23 24 25 26 26 26 25 24 24 23 23 23 22 22 21 20 20 20
27 26 23 20 19 20 20 19 19 19 18 18 19 20 20 21 21 23 24 25 26 25 25 25 26 25 24 24 25 24 22 21 20 19 18 17 17 16 16 16 16 17 19 20 22 23 24 25 25 26 25 25 25 24 24 23 22 21 20 19 19 18
27 27 26 24 22 22 22 21 21 20 18 19 20 20 21 22 23 24 24 25 25 25 25 25 26 26 24 24 23 21 20 19 19 19 17 16 15 15 15 15 15 16 18 20 21 23 24 25 25 24 24 24 23 23 23 22 21 20 19 18 17 17
28 30 30 26 22 22 23 23 23 21 20 20 20 20 20 21 22 22 22 22 21 21 21 22 22 22 21 20 18 17 17 17 18 17 16 15 15 14 14 14 14 15 16 18 20 21 22 23 22 22 21 21 20 20 20 19 18 17 17 16 16 16
26 29 31 27 23 22 23 24 24 23 21 20 19 18 17 17 18 18 18 18 18 18 18 19 19 18 17 16 16 16 16 17 17 16 15 15 14 14 14 14 14 14 15 17 18 19 20 20 20 19 18 18 18 17 17 17 16 16 15 15 15 14

ECMWFFLT2_500_spd_033.txt.gz
Wind_Speed
22 21 21 21 20 18 18 21 22 21 22 22 17 16 20 23 26 30 34 36 34 32 30 28 25 22 19 19 19 19 18 18 18 18 18 17 16 16 16 16 17 16 16 16 17 18 19 19 20 20 20 20 20 20 20 19 18 18 19 17 15 16
20 20 19 17 18 18 19 19 18 19 19 19 17 17 18 20 23 25 29 32 30 27 27 24 21 19 18 18 19 19 19 19 20 19 18 17 17 17 17 17 17 17 16 16 17 18 19 20 21 21 21 21 21 22 21 20 19 20 20 16 16 18
19 19 19 18 20 20 19 18 16 18 18 18 19 18 18 19 21 23 26 28 25 23 23 20 18 17 18 19 19 20 20 21 21 20 19 19 18 18 18 17 16 17 17 17 17 19 20 21 22 22 22 22 22 22 22 21 21 22 20 17 18 19
19 19 19 18 19 19 18 19 19 20 21 20 19 18 20 21 21 24 25 24 21 17 16 15 14 16 17 20 21 21 20 20 20 20 20 20 19 19 19 18 17 17 17 17 17 18 20 22 22 22 22 22 22 22 23 23 23 23 20 19 20 20
18 18 19 18 19 20 21 21 20 20 20 19 19 20 21 21 20 22 20 19 16 12 12 13 14 16 19 22 23 22 20 20 20 20 20 20 20 20 19 18 18 17 17 17 17 18 19 21 22 21 21 22 22 22 22 23 23 23 21 20 21 20
19 19 21 22 22 23 24 24 22 20 19 19 21 21 19 16 16 16 15 14 14 14 15 17 17 18 21 22 22 20 20 18 18 18 18 19 19 19 19 18 17 16 16 15 16 17 18 20 21 21 21 21 21 21 22 22 23 23 21 21 21 21
20 22 23 24 23 23 25 25 23 21 21 21 20 17 14 12 11 12 12 13 15 16 16 16 16 17 18 19 18 17 15 14 15 16 17 18 18 18 18 17 15 15 15 15 15 16 17 19 20 20 20 21 20 20 21 22 22 22 21 21 21 22
22 24 24 25 25 25 25 24 22 20 19 18 17 14 12 13 13 13 13 15 15 15 15 15 16 16 16 18 17 14 12 11 13 14 15 17 17 18 18 18 18 16 15 16 16 16 17 17 18 18 19 20 20 20 20 20 21 21 21 21 22 22
24 23 24 25 25 23 23 22 21 19 17 17 16 15 15 15 15 15 16 16 16 16 16 16 16 16 17 18 17 16 13 13 13 12 14 17 18 19 19 19 18 17 16 17 17 16 16 16 16 17 18 18 18 18 19 19 19 20 21 22 22 22
23 22 22 23 21 21 21 21 21 19 17 17 15 14 15 17 15 16 17 15 15 16 16 17 17 16 17 17 16 17 15 14 15 15 15 16 17 18 16 15 15 15 15 16 16 16 15 16 16 17 17 17 17 18 18 18 19 20 21 22 22 22
20 20 19 19 18 19 20 21 20 19 18 17 16 15 16 18 18 18 17 15 14 14 15 16 17 16 16 15 15 15 14 14 16 16 15 14 16 17 14 12 13 13 14 15 15 16 16 16 16 16 16 17 17 17 18 18 18 19 20 22 22 21
18 18 18 17 17 17 17 18 17 17 18 18 16 14 14 15 15 15 15 14 14 14 15 14 14 15 15 14 13 13 13 13 15 15 13 12 14 15 13 11 11 12 13 14 14 15 15 15 16 15 15 15 15 16 17 17 17 18 20 22 22 22
17 17 16 15 14 14 15 16 15 17 19 17 14 12 13 14 13 13 13 13 14 14 14 13 12 13 13 13 12 12 12 13 14 13 12 11 12 12 11 11 12 12 12 12 13 13 13 14 14 15 14 15 15 15 17 18 18 19 20 23 24 23
16 17 16 14 14 14 16 17 17 17 17 15 14 14 15 15 14 13 12 13 14 15 14 12 11 10 10 10 10 11 11 12 12 12 12 12 12 11 10 11 14 12 10 11 12 12 12 13 14 14 14 14 15 16 17 19 20 21 21 23 22 21
16 16 16 15 15 16 17 18 17 16 15 14 15 16 15 14 13 12 11 12 12 13 12 11 9 8 9 9 9 10 11 10 11 12 12 12 12 11 9 11 12 8 6 9 11 11 12 13 13 13 13 14 15 16 18 20 21 21 21 22 22 23
15 16 17 17 17 17 17 16 15 14 14 14 15 15 13 12 12 12 11 11 11 10 10 9 8 7 7 8 9 10 11 10 11 11 12 11 11 10 8 9 8 6 6 8 10 11 12 12 12 12 13 14 15 16 17 19 20 20 21 22 23 24
14 16 18 18 18 17 16 16 15 14 13 14 14 13 12 12 13 13 11 10 10 9 8 7 6 6 7 8 9 11 11 12 11 11 10 9 8 9 9 8 8 8 9 10 10 11 12 12 12 12 13 14 15 15 16 17 19 20 20 21 22 23
14 16 17 18 19 18 17 16 15 14 13 14 14 12 12 12 13 13 11 10 9 8 7 6 6 7 7 8 9 11 13 13 10 10 10 9 8 9 9 8 8 9 9 10 10 11 12 12 11 11 12 13 13 14 15 16 17 19 19 20 21 22
16 16 16 17 19 19 18 16 16 15 14 14 13 12 12 12 13 12 11 9 8 8 7 7 7 8 8 9 10 11 14 14 11 10 11 10 9 8 8 9 9 9 10 11 11 11 11 11 11 11 11 12 12 13 14 14 16 18 18 20 21 21
18 17 17 16 17 18 18 18 18 16 15 13 11 11 12 12 12 11 10 9 8 8 7 7 7 8 9 10 12 13 15 16 14 12 11 11 10 9 9 9 9 10 10 11 10 9 9 10 11 12 11 11 12 13 13 13 15 16 18 19 21 22
20 19 18 16 16 17 18 19 18 16 13 11 10 11 12 12 12 11 10 10 9 8 8 8 7 8 10 11 13 14 16 16 15 14 12 11 11 10 10 9 9 10 10 10 10 9 10 12 12 13 13 13 13 13 13 13 13 14 15 16 18 20
21 21 20 18 17 17 18 18 16 15 14 11 11 11 12 12 12 12 11 10 9 9 9 9 8 9 10 11 14 15 16 17 16 14 13 12 11 10 10 10 10 10 10 10 10 11 13 14 13 14 14 13 12 12 12 12 12 12 13 14 14 16
21 22 23 20 18 18 18 17 16 15 13 12 11 11 11 11 11 11 11 10 10 10 9 9 9 10 10 11 13 15 16 16 16 15 14 13 12 11 10 10 10 10 11 11 11 12 13 14 15 15 16 13 11 12 13 13 13 12 13 13 13 15
22 23 24 22 19 18 18 18 16 14 12 12 12 11 11 11 11 11 11 11 11 10 10 10 10 10 11 11 12 13 14 15 16 16 15 14 13 12 11 10 9 10 12 12 12 13 13 15 16 17 17 14 12 14 13 12 13 13 15 15 13 14
23 23 23 24 21 18 19 18 15 13 12 13 13 12 12 12 12 12 12 12 12 11 11 10 10 9 11 12 12 12 13 13 14 15 15 15 14 14 13 11 9 11 12 12 12 14 14 16 17 18 17 15 14 15 14 12 14 15 15 15 14 14
22 22 23 26 24 19 20 17 14 13 12 13 14 13 13 13 13 13 13 13 13 12 11 11 10 9 10 11 12 12 12 13 13 14 15 15 15 14 15 15 13 13 13 13 13 14 14 15 16 17 17 16 16 17 16 16 16 16 17 16 16 16
21 23 24 27 26 20 18 16 13 13 13 14 14 13 13 13 13 13 13 13 13 12 11 11 10 9 9 10 12 13 14 13 13 14 14 14 15 14 15 16 16 15 15 14 14 14 14 15 15 16 16 16 17 18 18 19 18 18 19 19 17 16
21 24 24 26 22 16 14 13 12 12 13 14 13 13 13 13 12 12 12 11 11 11 11 11 11 10 10 10 11 13 14 14 14 14 14 14 14 14 15 15 16 17 16 15 15 15 14 13 14 16 16 16 17 19 20 20 19 19 20 20 18 17
22 25 25 24 19 14 13 12 11 11 13 13 13 13 13 13 12 11 10 10 10 10 11 11 12 12 12 12 12 12 13 14 14 14 14 14 15 15 16 16 16 16 16 16 15 15 15 15 15 16 16 17 18 19 20 19 19 19 20 20 20 19
18 19 19 20 19 15 13 13 13 13 13 13 14 14 13 13 12 11 11 10 11 11 11 12 12 13 14 14 14 13 13 13 14 15 15 16 17 17 17 17 17 17 17 16 15 15 15 16 16 16 17 18 18 19 20 20 20 21 21 21 21 20
14 15 17 19 18 15 14 14 14 14 13 14 15 14 14 13 13 13 13 13 14 14 14 14 14 15 15 15 16 15 15 15 15 16 17 18 19 18 17 17 18 18 17 16 16 15 14 15 16 16 17 18 18 18 20 21 22 21 20 20 20 21
18 20 22 23 22 19 16 15 16 15 15 16 16 15 14 13 13 14 15 16 16 16 16 16 16 17 17 17 17 17 17 17 18 18 18 19 20 19 19 18 19 19 19 18 17 16 15 15 15 15 16 17 17 18 20 21 22 21 21 20 20 22
21 22 23 24 25 23 19 18 17 16 17 17 16 15 14 13 14 15 16 17 17 17 18 18 19 20 19 19 18 18 18 18 18 19 20 21 21 20 19 19 19 19 19 19 17 16 16 15 15 15 15 16 17 18 19 21 21 22 22 22 22 23
24 22 23 24 25 25 23 21 18 17 19 18 17 16 15 15 16 17 17 18 18 19 20 20 20 20 20 20 19 18 19 19 19 20 21 22 21 19 18 18 18 19 19 18 17 16 15 15 14 14 14 15 16 17 19 20 21 21 22 22 22 23
26 22 23 24 25 27 26 23 20 19 20 20 19 18 17 17 18 18 18 18 18 18 17 17 17 17 18 17 17 17 18 19 20 20 20 19 19 18 18 18 18 18 18 18 17 16 15 14 14 13 14 15 15 16 17 18 19 19 20 20 20 20
28 24 24 25 25 26 27 26 23 21 21 21 21 20 20 19 19 19 18 17 15 14 13 14 14 15 16 16 16 16 16 17 18 18 17 17 17 17 18 18 18 18 18 17 16 15 14 13 13 13 14 14 15 15 16 16 17 17 18 18 18 18
29 28 27 26 26 27 26 28 26 22 22 23 23 23 22 21 20 19 17 15 14 14 14 14 14 15 16 17 17 17 16 16 16 16 16 16 17 17 18 18 18 18 17 16 15 14 13 13 13 13 13 14 14 14 14 15 15 15 16 16 16 16

ECMWFFLT2_500_spd_036.txt.gz
Wind_Speed
23 22 22 20 20 21 21 21 19 16 14 16 14 13 15 16 16 17 20 22 23 26 29 32 32 27 23 23 21 18 15 13 13 14 15 14 14 13 14 15 15 16 15 15 16 16 17 18 18 19 19 19 19 19 19 18 16 11 9 12 14 13
23 22 21 20 20 20 17 15 14 16 17 14 10 12 15 15 17 19 19 19 21 23 25 29 28 24 22 20 17 15 14 14 15 16 16 16 15 15 14 14 15 16 16 17 18 18 17 18 18 18 19 19 20 20 21 20 17 11 11 14 15 14
22 21 22 20 20 19 17 17 19 19 17 13 12 14 14 16 18 19 18 19 21 21 22 24 22 21 22 19 14 13 14 15 17 18 19 18 17 16 14 15 16 17 18 18 19 18 18 18 18 18 18 19 20 21 22 21 17 13 13 16 15 16
22 21 23 22 20 20 19 20 20 18 16 15 15 15 16 18 18 19 20 21 21 21 22 23 20 20 19 15 12 13 15 18 20 21 21 21 19 17 16 16 17 17 18 19 19 18 17 17 17 17 18 19 21 22 23 22 17 13 14 17 17 17
23 23 23 22 21 20 19 19 18 18 19 19 17 16 16 17 17 19 20 20 19 19 20 19 17 15 14 13 13 13 15 18 20 21 22 20 19 19 18 17 18 18 18 18 18 17 17 16 17 18 18 19 21 22 23 22 18 14 15 18 19 18
21 22 21 20 21 21 22 22 21 21 22 20 18 16 16 17 19 18 16 14 14 13 13 13 13 14 14 13 12 12 13 14 16 18 18 16 17 18 18 17 16 16 16 17 18 17 17 16 17 17 17 18 19 21 22 21 18 16 17 20 21 19
21 21 20 21 22 23 22 22 21 22 21 19 18 18 19 18 15 12 11 10 10 10 10 11 13 14 13 12 12 12 11 11 13 14 13 13 14 15 14 13 13 13 14 16 17 16 16 16 16 15 16 17 18 20 21 20 18 16 18 21 20 20
22 23 23 24 24 23 22 21 21 20 18 18 18 18 17 13 8 9 11 11 12 12 13 13 13 12 11 11 12 13 12 11 12 14 13 12 12 11 11 12 12 14 13 12 14 15 15 14 14 14 15 16 17 18 18 18 17 17 19 19 19 19
22 24 24 24 23 22 22 22 21 17 16 16 17 16 13 11 10 11 12 13 15 16 16 16 14 12 11 11 11 12 12 12 12 14 14 12 12 11 12 12 11 12 13 11 12 15 14 13 13 13 14 14 15 15 17 19 18 17 18 18 17 18
22 24 24 23 22 20 20 20 18 16 15 15 15 14 12 12 11 12 13 15 17 17 16 13 12 12 12 11 12 12 12 12 11 13 13 13 13 13 13 12 11 11 14 12 11 13 14 12 11 12 13 13 13 14 16 19 19 17 17 16 15 16
22 22 22 20 19 18 17 17 16 16 15 14 15 14 13 13 13 14 15 16 16 16 14 12 11 11 11 11 12 11 11 11 11 11 11 12 13 13 12 14 13 13 15 14 10 10 12 12 11 11 12 11 12 13 15 20 19 16 16 15 15 15
21 20 20 19 18 17 15 15 15 15 14 13 14 13 13 13 14 14 13 14 14 13 13 13 11 11 11 11 11 11 11 10 9 9 10 10 11 11 11 13 13 11 13 14 12 9 10 12 11 10 10 10 11 11 15 19 17 15 16 15 15 15
19 18 18 18 17 15 15 15 13 12 11 11 12 12 12 12 12 12 12 13 14 13 13 12 11 12 11 11 11 11 9 8 7 8 9 9 10 9 9 9 8 8 9 11 12 10 9 10 11 10 9 8 9 11 14 15 13 14 15 15 14 13
17 18 17 17 16 14 13 13 12 11 10 11 11 11 10 10 11 12 12 12 13 13 13 12 11 11 11 11 11 10 8 7 7 8 9 8 8 8 8 7 6 7 9 11 12 11 10 9 9 10 8 7 9 11 12 13 13 14 15 15 14 13
16 16 16 16 15 14 13 13 12 12 13 13 12 10 10 10 11 12 11 10 10 11 11 12 12 11 11 10 9 9 9 8 7 8 7 7 6 7 8 7 6 8 9 9 9 10 10 8 9 9 9 11 12 12 11 13 14 15 15 15 15 15
15 15 14 15 15 14 14 14 13 14 15 13 11 11 10 10 10 10 10 10 9 10 10 11 12 12 11 10 9 9 9 8 7 7 7 7 6 6 6 5 6 6 6 5 6 8 8 8 9 8 9 14 14 12 11 12 14 14 14 15 16 16
15 15 14 14 14 14 15 15 15 15 14 12 12 11 10 9 9 9 9 9 10 10 9 10 11 12 12 11 10 10 9 9 8 6 5 6 5 4 4 4 5 5 4 5 7 8 8 7 8 8 10 13 14 11 10 11 12 12 13 14 16 16
16 15 14 14 15 15 16 17 17 16 14 13 11 10 9 9 9 8 8 9 9 10 10 10 11 12 12 12 11 11 10 10 9 7 5 5 5 4 4 4 4 5 6 7 9 8 7 8 9 10 10 11 12 9 8 10 10 11 12 14 16 16
17 16 15 16 15 15 16 17 18 17 14 13 11 10 10 9 7 7 7 8 9 10 11 11 12 12 12 12 12 11 10 10 9 8 6 5 5 5 5 5 5 5 6 8 9 7 8 9 9 10 9 9 9 8 8 10 10 11 13 14 16 17
18 18 17 17 16 15 16 18 19 18 15 13 11 10 9 7 6 7 7 9 10 11 11 12 12 13 14 14 13 12 11 10 10 9 7 5 5 5 5 6 6 6 8 8 8 7 7 8 9 8 8 8 7 7 9 10 10 12 13 14 15 17
19 18 18 17 17 16 17 19 20 19 16 13 11 10 8 7 7 8 9 10 11 11 12 12 13 14 15 15 14 12 11 10 10 10 8 5 5 6 6 7 6 7 8 8 7 7 8 8 8 8 7 6 7 8 9 9 10 11 13 14 15 15
20 20 19 19 18 17 18 19 20 19 17 13 11 10 9 8 8 9 10 10 11 12 12 13 13 15 15 14 14 12 10 10 10 10 9 6 6 7 8 8 7 7 8 8 6 8 9 9 10 9 7 6 7 9 9 9 11 12 13 14 15 15
20 21 20 20 19 18 18 20 20 19 17 14 11 11 10 9 10 10 10 11 11 12 12 12 13 14 14 13 12 12 10 10 9 9 8 7 7 8 8 8 7 7 8 8 7 8 9 10 10 10 7 6 7 8 9 10 11 12 14 15 15 15
22 21 20 20 20 19 20 21 21 19 16 14 12 12 11 11 11 10 11 11 11 11 11 12 13 13 13 11 11 10 10 10 9 8 7 6 7 8 9 9 8 8 8 8 7 8 9 9 10 9 8 8 9 10 9 10 11 12 13 14 14 15
22 21 20 20 21 20 22 22 22 20 17 15 14 13 12 11 11 11 11 12 11 12 12 12 13 13 13 11 10 9 9 9 9 8 7 7 7 7 8 9 9 9 9 9 9 8 8 9 9 9 9 10 11 12 10 11 11 12 14 14 13 13
20 18 18 20 21 22 24 25 24 21 18 16 15 14 12 12 12 12 12 12 12 12 12 13 13 12 11 10 10 9 9 9 9 9 8 7 7 6 7 8 9 9 10 10 10 9 8 8 9 9 9 10 12 12 11 12 13 13 15 15 14 14
16 17 18 20 21 22 23 23 23 21 19 17 15 14 13 12 12 12 12 12 12 12 12 13 13 12 11 10 9 9 10 10 10 9 8 7 8 7 7 8 8 9 9 10 11 11 9 9 9 9 10 10 11 12 12 13 14 15 15 15 14 15
14 15 17 20 22 21 20 18 18 18 18 17 16 14 14 13 13 13 12 12 11 10 10 11 12 12 12 11 10 9 9 10 10 10 9 8 9 9 9 9 10 10 10 10 11 12 11 10 9 9 10 10 10 12 13 14 15 16 15 14 14 15
15 15 17 19 20 21 19 18 16 18 17 16 15 15 15 15 13 12 11 10 9 8 8 10 11 12 12 12 11 11 10 10 10 10 9 9 10 11 12 12 12 11 11 11 12 12 13 12 11 12 12 12 11 12 13 14 14 14 14 14 14 15
18 17 19 20 20 22 21 18 14 15 15 14 13 15 15 14 13 12 11 10 8 7 7 9 9 10 11 12 12 13 12 12 12 11 11 10 11 12 13 14 13 13 12 12 12 13 14 14 14 15 15 15 14 13 13 13 13 13 13 14 15 15
18 15 15 16 16 18 18 14 10 12 12 12 12 14 14 13 12 12 11 10 9 9 8 9 10 11 12 12 13 14 14 14 14 14 13 13 13 13 14 15 15 14 13 13 13 14 15 15 16 17 17 16 15 14 12 12 12 12 13 13 14 15
16 14 12 12 12 13 14 13 13 12 11 11 12 13 12 12 12 11 10 9 9 10 9 10 11 11 12 13 14 15 15 16 16 16 15 14 14 14 15 16 16 16 14 13 14 14 15 16 16 17 17 16 15 14 12 12 11 12 12 12 13 14
15 14 12 11 11 11 12 13 13 13 13 12 12 13 12 12 13 11 10 10 9 9 9 11 12 12 13 14 14 14 15 16 16 16 16 15 15 15 16 17 17 17 15 14 14 14 14 15 15 16 17 16 15 14 12 12 11 11 12 12 13 14
13 13 13 13 13 12 12 12 13 14 15 14 14 13 12 13 13 13 11 10 10 9 10 11 12 11 12 11 11 12 12 13 14 14 15 16 16 16 17 17 16 16 15 14 14 14 14 14 14 14 14 13 12 11 11 11 11 11 12 13 13 14
14 14 15 15 13 13 12 13 15 16 15 16 15 14 13 14 15 14 13 12 11 11 11 10 9 9 9 8 8 9 10 12 12 12 13 14 15 16 16 16 15 15 15 15 14 14 14 13 12 12 11 11 10 10 10 10 11 11 12 13 13 14
17 16 16 16 14 15 15 15 17 18 17 17 17 16 15 16 17 16 16 15 12 12 10 9 9 9 8 8 8 8 10 11 12 12 12 13 14 14 14 14 15 15 16 16 16 16 16 15 14 13 12 12 11 11 11 11 11 11 11 12 12 13
18 17 19 18 17 18 17 16 17 18 18 18 19 18 17 19 20 20 18 17 14 13 11 10 11 11 10 10 9 9 10 11 12 12 12 12 12 13 13 14 14 15 16 17 17 17 17 17 17 16 15 15 14 13 13 12 12 11 11 12 12 12

ECMWFFLT2_500_spd_042.txt.gz
Wind_Speed
21 20 19 18 17 16 17 17 17 15 13 13 12 12 12 14 15 15 14 13 14 15 16 16 16 15 14 14 14 14 15 16 18 19 19 18 14 14 15 16 16 15 15 16 17 18 17 16 16 16 13 10 11 13 13 12 13 14 13 11 10 9
22 21 20 19 19 18 17 17 15 14 14 14 14 15 16 18 17 16 15 15 15 15 16 16 17 16 16 16 15 12 13 14 15 16 16 17 15 15 16 17 17 17 16 16 18 18 17 16 16 16 14 11 12 13 14 13 14 15 14 12 11 11
23 22 21 20 20 19 19 18 17 17 16 17 17 18 17 17 16 16 16 16 16 15 16 17 17 17 17 17 14 11 12 12 14 15 15 16 16 16 17 18 19 19 18 18 19 18 18 17 16 17 15 12 12 13 14 14 15 16 14 13 13 12
23 23 22 21 20 19 20 19 19 19 19 18 17 16 16 16 17 18 18 18 17 17 16 16 16 16 17 16 13 10 11 13 14 14 13 14 15 16 18 19 20 21 20 20 20 20 20 18 17 17 15 12 11 13 14 14 16 15 14 14 14 14
23 23 23 22 21 20 19 19 19 19 19 17 16 16 17 18 19 20 19 18 17 16 15 15 14 12 12 12 14 13 13 14 14 12 12 14 14 16 18 19 21 21 21 21 21 22 21 19 18 17 13 10 11 14 15 15 16 15 15 16 16 16
23 23 23 22 21 19 18 18 18 18 17 17 18 19 19 19 19 19 18 18 17 16 15 13 9 7 6 8 11 12 13 13 13 12 13 13 13 15 16 17 18 19 20 20 22 22 21 19 17 15 11 10 13 15 16 16 16 16 17 17 18 17
23 23 22 21 19 18 17 17 17 17 18 18 19 19 18 18 17 17 17 16 16 14 12 9 6 5 6 6 7 9 11 12 13 13 13 12 12 13 13 14 16 17 18 19 21 22 20 17 15 14 12 13 14 15 15 15 16 16 17 18 19 18
22 22 21 20 18 18 17 17 16 17 17 17 17 17 16 15 15 15 14 13 10 8 7 7 7 7 7 7 7 8 10 12 13 13 12 12 12 12 12 13 14 15 16 16 17 18 17 15 14 15 15 15 16 15 14 15 17 18 18 19 19 19
22 20 19 18 17 17 16 16 15 15 15 15 14 14 13 13 12 12 11 9 8 7 7 8 8 8 7 7 8 9 10 11 12 12 12 12 12 12 13 13 14 14 14 14 13 13 14 13 14 17 17 16 16 14 14 15 18 19 19 18 19 19
22 20 19 18 17 16 16 15 14 13 12 12 12 11 11 10 10 10 9 8 8 8 8 8 9 10 9 8 8 9 10 10 11 11 11 12 12 12 12 13 14 14 14 14 12 12 12 12 14 17 17 15 14 13 14 16 17 17 20 19 17 16
22 21 19 17 16 15 15 14 13 12 10 10 10 10 9 9 9 9 8 7 7 8 8 8 9 9 9 9 9 10 10 10 9 10 11 11 11 11 11 12 13 13 14 14 12 11 11 13 15 16 15 14 13 13 15 16 15 14 19 21 17 14
22 21 19 17 16 14 13 13 12 11 10 10 9 8 7 7 7 8 7 7 7 7 7 7 8 8 8 9 10 10 10 9 9 10 10 10 10 11 11 11 12 12 12 13 13 12 12 14 16 15 13 13 13 14 14 15 14 13 15 19 16 14
22 20 17 15 14 14 12 12 10 10 9 9 8 6 4 4 5 6 7 7 7 7 7 7 7 7 7 8 9 9 9 9 9 9 9 10 10 10 11 11 11 10 10 11 12 13 13 14 15 13 12 12 13 14 14 13 13 12 12 15 15 14
21 19 17 15 14 13 12 11 10 9 9 8 7 6 5 4 4 5 6 7 7 7 7 6 5 5 6 7 8 8 9 8 8 7 7 8 9 9 9 9 10 9 8 8 9 11 12 13 14 12 10 12 13 13 12 12 12 11 11 12 13 13
21 20 17 15 14 12 9 9 10 10 9 9 8 7 5 4 4 5 6 7 7 7 6 4 4 5 6 7 8 8 7 6 6 5 6 7 7 8 8 8 8 9 8 7 7 8 10 12 14 12 10 11 12 12 12 12 12 10 11 12 12 11
20 20 18 16 14 11 8 9 9 9 9 9 8 6 5 5 5 6 6 7 7 7 6 4 5 6 6 7 7 6 6 5 5 5 5 6 7 7 7 6 6 7 7 6 7 8 8 11 13 12 11 12 11 11 11 11 11 9 11 12 11 11
19 18 17 17 15 11 8 8 8 8 9 8 7 6 5 5 6 6 6 6 6 7 6 6 6 6 6 6 6 6 5 5 5 5 5 6 6 7 6 5 4 5 5 4 6 7 7 8 10 11 11 12 10 9 10 10 10 9 11 11 9 9
15 15 13 15 16 12 9 7 5 6 7 7 7 7 6 6 6 6 6 5 6 7 7 7 7 6 6 6 6 6 5 5 5 5 5 5 6 7 6 4 4 4 4 3 4 5 5 6 8 9 10 10 9 9 11 11 9 9 10 11 9 8
11 11 11 12 13 14 10 7 5 5 6 7 7 7 6 6 6 6 5 6 6 7 8 8 7 7 7 7 6 6 6 6 6 5 5 5 6 6 5 4 4 4 4 4 4 5 5 6 7 8 9 9 8 9 11 11 9 8 8 8 8 7
10 10 11 12 11 13 10 7 6 5 5 6 6 6 6 5 5 5 5 6 7 7 7 7 7 7 7 7 7 6 6 6 6 6 5 6 6 6 5 4 3 3 4 4 4 6 5 6 7 8 8 9 8 8 8 8 7 7 6 7 7 7
11 10 10 11 10 11 11 9 8 5 5 5 4 5 5 5 5 5 6 6 6 7 6 7 7 7 8 8 8 8 7 7 6 6 6 6 6 6 5 4 3 3 4 4 4 6 5 5 6 7 7 7 8 7 6 5 5 6 7 7 6 6
13 11 10 11 10 10 9 9 8 6 5 4 4 4 4 5 5 6 6 6 6 6 6 6 7 7 8 8 9 9 8 8 7 7 6 6 6 6 5 4 4 4 4 4 4 6 6 5 5 6 5 6 7 6 5 5 5 7 7 6 6 6
13 12 12 13 13 14 10 8 7 7 6 5 4 4 4 5 5 6 6 6 6 6 6 6 6 7 7 8 9 9 9 8 8 8 7 7 7 6 6 6 5 4 4 4 4 5 6 5 5 5 6 6 7 6 6 5 5 6 5 5 7 6
12 11 12 13 13 17 12 10 9 8 6 6 5 5 5 5 5 6 6 6 6 6 5 5 6 7 7 8 9 9 9 8 8 7 7 6 6 7 7 7 6 5 5 5 5 5 5 5 5 5 6 6 7 7 7 6 7 7 5 5 6 5
10 11 13 13 13 17 15 14 12 9 7 7 6 6 6 6 6 6 6 6 6 6 6 6 7 7 7 8 8 8 8 7 7 6 6 6 6 6 7 7 7 6 6 6 6 5 6 6 6 5 5 5 7 7 8 8 8 7 6 7 7 6
12 12 13 13 13 15 14 14 13 10 9 8 7 7 7 7 7 7 7 7 6 7 7 7 8 8 8 8 8 7 7 7 6 6 6 6 6 6 7 8 8 7 6 6 6 6 6 6 6 5 5 5 7 8 8 8 9 8 8 8 8 8
13 11 11 11 11 12 12 12 12 11 10 9 8 8 8 8 7 7 8 8 8 8 8 9 9 9 9 9 9 8 7 6 6 5 5 6 6 6 7 8 8 8 7 6 6 6 6 7 7 7 6 5 7 9 9 9 9 9 9 9 9 9
12 11 10 8 9 10 11 11 12 10 9 9 9 10 10 9 8 8 9 9 9 9 10 10 11 11 11 11 10 9 8 7 6 5 5 5 5 6 7 8 9 8 8 7 6 6 6 6 7 8 8 7 7 8 9 9 10 10 11 10 10 9
13 12 11 8 8 8 9 10 10 9 7 6 6 7 9 10 10 9 10 10 11 11 11 11 11 11 11 12 11 10 9 8 7 7 6 6 6 6 7 8 9 9 9 8 7 7 6 6 7 8 8 8 8 9 10 10 11 12 12 11 10 10
14 12 10 9 7 6 7 9 9 8 7 5 4 5 8 10 11 11 11 11 11 11 11 11 10 10 10 11 11 11 10 10 10 9 9 9 8 8 8 8 9 10 10 9 9 8 7 6 7 8 8 8 9 10 11 12 13 13 12 12 11 11
14 12 11 10 9 7 8 9 9 9 9 7 5 5 7 9 11 12 11 11 11 11 11 10 10 9 9 10 10 10 10 10 11 12 12 11 10 10 10 10 11 11 11 11 10 9 8 7 7 7 8 8 9 10 11 12 13 13 13 12 12 12
11 13 12 11 9 8 9 10 11 12 11 9 6 5 6 7 10 11 11 11 11 11 11 11 11 11 10 10 11 11 11 12 13 14 15 14 13 13 13 13 13 13 13 12 11 10 10 9 8 8 7 8 9 10 11 11 11 12 13 13 13 13
8 13 14 12 10 8 8 9 11 13 13 11 7 7 7 7 9 11 11 11 11 10 11 12 13 13 13 12 13 14 15 15 16 17 17 17 16 16 16 16 15 15 14 14 12 12 11 11 10 9 8 9 10 10 11 11 11 12 13 13 13 13
8 12 14 11 10 9 8 8 11 14 14 11 10 10 10 10 10 12 12 12 11 11 12 13 14 15 15 14 15 16 17 19 20 20 19 19 18 18 17 17 17 16 15 14 14 13 13 12 11 10 10 10 11 10 10 10 11 12 13 12 13 13
10 12 12 11 10 9 8 8 10 13 14 14 13 13 12 12 13 14 14 13 13 13 13 14 14 14 15 15 15 16 17 18 20 20 19 19 18 18 17 17 16 15 14 13 13 13 13 12 12 11 11 10 10 10 10 10 11 12 12 12 12 13
12 12 11 11 11 9 7 7 8 11 14 15 14 14 14 14 15 16 16 15 14 14 15 15 14 14 14 14 14 14 14 15 16 17 17 17 17 16 16 15 13 11 10 11 12 12 12 12 12 11 10 9 9 10 10 10 11 11 11 12 12 13
11 12 11 10 9 8 7 8 9 10 13 15 16 15 15 15 16 17 17 16 16 16 17 17 15 14 14 14 14 14 13 13 14 14 15 15 15 14 14 13 11 10 10 10 11 12 13 13 13 11 11 10 10 10 10 10 10 11 11 11 11 13

ECMWFFLT2_500_spd_045.txt.gz
Wind_Speed
23 22 22 21 21 20 19 18 17 18 18 17 17 17 16 14 14 14 15 16 17 17 15 16 17 17 18 18 17 18 18 18 19 19 19 18 16 18 21 17 16 16 15 16 16 17 16 14 11 10 12 14 15 15 14 13 14 14 12 11 11 11
23 22 22 22 21 20 20 19 19 19 18 17 17 17 16 15 16 17 18 18 17 16 15 16 16 17 19 19 19 19 19 19 19 19 19 17 15 17 19 17 17 17 18 18 17 17 17 14 12 10 12 15 16 16 15 14 15 16 14 12 12 13
23 23 23 22 22 21 21 21 20 20 20 20 20 19 19 19 19 19 18 18 17 17 16 16 17 17 19 19 20 21 21 20 18 17 16 15 15 16 17 18 19 18 19 20 19 19 17 15 13 11 12 16 17 16 16 16 17 18 15 13 14 14
23 23 23 23 23 23 21 20 20 20 20 21 21 21 21 21 19 18 17 18 19 19 18 18 18 18 19 19 20 22 22 19 17 17 15 14 15 17 18 19 20 19 20 21 21 20 19 17 14 12 14 16 17 17 18 18 18 19 17 15 15 16
24 24 24 24 23 22 20 19 19 19 20 21 21 21 21 20 19 18 19 20 21 20 19 18 18 17 17 18 19 20 20 18 17 17 15 16 18 18 18 19 20 20 20 21 22 22 21 19 17 14 15 17 18 18 18 19 19 19 19 18 16 16
25 25 25 24 23 22 20 19 18 19 20 20 20 20 20 19 20 21 21 21 21 19 18 17 17 16 17 16 15 15 16 17 17 16 15 17 18 17 17 18 19 19 19 20 22 23 22 20 18 16 16 18 19 19 19 19 19 19 20 19 18 17
25 25 25 24 23 22 20 18 18 18 19 19 20 20 20 20 21 21 21 20 19 18 17 17 17 16 14 12 12 12 12 13 14 13 14 16 16 16 16 17 17 17 18 19 21 22 21 20 18 17 18 19 19 19 19 18 18 19 19 19 19 19
25 25 25 24 23 21 19 18 18 18 18 18 19 19 19 19 19 19 18 18 17 16 15 15 14 13 12 11 12 12 11 10 10 12 14 15 16 16 15 15 15 15 16 17 19 20 20 19 19 18 19 20 19 18 17 17 17 18 19 19 20 19
26 26 25 24 22 20 18 17 17 18 17 17 16 16 17 17 16 16 15 15 14 13 11 10 10 11 11 11 11 11 10 9 10 11 13 14 15 15 15 14 14 14 15 16 18 18 18 18 18 18 18 19 19 17 15 15 16 17 18 19 20 20
26 26 26 24 21 19 17 15 15 15 15 15 14 14 14 14 14 14 13 13 12 11 10 10 10 11 12 12 11 11 10 10 10 11 12 12 13 14 14 13 13 13 14 15 16 17 17 17 17 17 17 18 18 16 14 14 16 18 19 20 20 20
27 27 26 24 21 18 15 14 14 14 13 14 13 13 13 14 14 13 13 12 10 10 9 10 10 11 11 11 11 11 11 11 11 11 12 12 12 12 12 12 12 13 15 16 16 17 17 18 17 16 15 15 16 15 14 15 16 17 18 19 20 21
27 28 28 25 21 18 15 13 13 12 13 13 13 13 13 14 14 13 12 11 9 9 9 9 9 9 10 10 10 11 11 11 11 12 12 12 12 12 11 11 11 12 14 15 16 17 18 19 17 15 13 13 14 14 14 15 16 16 17 18 19 21
25 27 28 26 22 18 15 13 12 12 13 13 13 13 13 14 13 12 12 11 10 10 9 9 9 9 9 10 10 11 11 11 11 11 11 11 11 10 10 10 10 11 12 14 15 17 18 19 16 14 14 13 13 14 14 15 15 14 16 17 17 19
22 25 27 24 20 17 14 12 12 13 13 13 12 12 12 12 11 11 11 11 10 9 8 8 8 9 9 10 10 10 10 9 10 9 9 9 8 8 8 9 10 11 12 12 13 15 17 18 17 16 14 13 13 13 14 14 14 14 14 15 14 16
21 24 25 22 18 14 13 12 12 13 13 12 11 12 12 11 10 10 10 10 9 8 7 7 8 8 9 9 8 8 8 8 8 7 7 7 7 7 7 8 9 10 10 10 11 12 13 16 17 16 14 12 12 12 13 13 14 14 14 14 14 15
21 22 23 22 17 13 13 13 13 13 12 11 11 12 12 11 10 10 10 9 8 8 8 8 8 8 8 8 7 7 7 7 7 6 6 6 6 6 6 7 8 8 8 8 9 10 11 12 14 14 14 12 11 11 12 13 13 14 13 12 13 14
21 22 22 20 14 12 13 14 14 13 11 11 12 12 12 11 10 10 10 9 8 8 8 8 8 8 8 7 7 7 7 7 7 6 6 6 6 6 6 6 6 6 6 6 8 10 10 9 10 12 13 13 11 11 10 11 12 12 11 11 13 13
21 22 20 13 7 8 10 12 12 13 12 11 12 12 12 11 10 10 9 8 7 7 7 7 8 8 8 8 8 8 7 7 7 6 6 6 6 6 6 6 5 5 5 5 6 7 8 7 7 9 10 10 10 9 9 9 11 10 10 10 12 11
20 19 15 10 5 5 8 9 10 12 12 11 13 12 12 11 10 9 8 7 6 6 7 8 8 9 9 8 8 8 8 7 7 6 6 6 7 7 6 5 5 5 5 4 5 6 6 6 6 7 7 8 8 8 8 10 10 9 8 9 10 10
20 18 16 13 9 6 8 10 10 11 12 12 13 13 12 12 10 9 7 7 6 6 7 8 8 8 8 8 8 7 7 7 6 6 6 6 7 8 7 5 4 4 4 5 5 6 6 6 6 6 6 7 7 7 7 9 10 9 9 9 10 10
17 17 18 15 10 7 8 12 12 12 13 13 13 12 12 12 10 9 8 7 6 7 7 8 8 8 8 8 8 7 7 6 6 6 6 7 8 8 7 6 5 4 4 5 5 5 5 6 6 6 6 6 6 7 6 7 8 9 10 9 9 11
15 15 17 15 11 8 8 12 13 12 13 13 12 12 12 11 10 9 8 7 7 8 8 8 8 8 8 8 7 7 7 6 6 6 7 7 8 9 8 8 7 6 5 6 5 5 5 5 6 6 6 5 5 6 5 5 6 8 9 9 9 9
18 19 18 15 12 9 9 12 12 12 12 13 12 12 12 11 10 9 8 8 8 8 8 9 9 9 9 9 8 7 7 6 6 6 7 7 9 9 9 9 8 7 7 6 6 5 5 5 6 6 6 6 6 6 6 6 6 7 9 8 8 8
20 20 17 14 12 10 10 12 11 11 11 12 13 12 12 11 10 9 8 8 8 8 9 9 9 9 9 8 8 8 7 7 7 7 7 8 9 10 10 10 9 8 7 7 7 6 5 6 6 6 7 7 7 7 7 7 7 8 8 7 8 8
22 19 16 14 12 9 13 16 12 11 11 12 14 13 12 11 10 9 8 8 8 8 9 9 9 9 9 9 8 8 8 8 8 7 7 8 9 10 10 10 10 9 8 8 7 7 6 6 6 7 7 8 8 8 8 8 7 8 8 7 8 9
20 18 15 13 12 11 17 20 16 13 14 16 16 15 13 12 11 10 8 8 8 8 9 9 9 9 9 9 9 9 9 9 8 8 8 8 8 9 10 10 10 9 8 7 7 7 7 6 7 8 8 8 8 8 9 9 8 9 9 8 9 10
18 19 18 15 13 12 17 22 19 15 16 18 18 16 14 13 11 10 9 9 9 8 9 9 9 9 9 10 10 10 10 10 9 9 8 8 8 9 9 9 9 9 8 7 7 7 6 6 7 8 9 9 8 8 9 9 9 9 10 10 10 10
15 18 19 16 14 14 18 21 18 15 16 17 17 16 14 13 12 12 11 10 10 9 9 9 9 10 10 11 11 11 11 10 10 9 9 8 8 8 8 8 8 9 8 8 7 6 5 5 6 8 9 9 9 9 9 9 10 11 11 11 11 11
14 14 16 15 15 17 19 19 16 16 16 16 16 14 14 14 14 15 14 12 11 10 10 9 10 11 12 12 12 12 12 11 10 10 9 8 8 8 8 8 8 9 9 9 8 7 6 5 6 8 8 9 9 9 9 10 11 11 12 13 12 12
12 13 15 16 16 18 19 17 16 16 16 15 15 15 16 16 17 17 15 14 12 11 10 10 10 11 11 12 12 13 13 12 12 11 10 9 9 9 8 8 9 9 9 9 9 8 7 6 7 8 9 9 10 10 10 10 11 11 11 12 12 13
13 14 16 17 17 18 19 18 18 17 16 16 16 16 16 16 17 17 15 14 12 11 11 10 11 10 11 11 12 12 12 12 12 12 12 11 10 10 10 10 10 10 10 10 10 9 8 8 8 9 9 10 10 11 11 12 12 12 12 11 12 13
13 15 16 17 18 19 20 20 19 17 17 18 17 16 15 15 16 15 15 14 13 12 12 11 11 11 11 12 12 11 12 12 12 12 12 12 12 12 12 13 13 13 13 12 12 11 11 10 10 10 11 11 11 11 12 12 13 13 13 13 14 15
8 11 15 17 18 20 21 21 20 19 20 20 18 16 15 14 15 14 14 14 14 13 12 12 12 12 13 13 12 12 12 12 12 13 13 14 14 14 15 15 16 16 16 15 14 14 13 13 12 12 12 12 12 11 11 12 12 13 13 14 15 17
5 8 12 16 19 20 21 21 22 23 23 22 19 17 15 14 14 14 14 14 14 14 13 14 14 14 15 15 15 14 14 14 14 14 15 15 16 17 17 18 19 19 19 17 16 15 15 15 14 14 13 13 13 11 11 12 12 13 13 14 16 18
8 8 11 15 17 18 18 20 23 25 25 24 22 18 15 14 14 14 15 15 15 15 14 15 14 15 16 17 17 17 17 16 16 17 17 17 18 18 19 20 20 20 20 19 18 17 16 16 15 14 13 13 13 11 11 12 12 13 14 15 17 18
10 9 12 16 17 17 17 18 22 25 26 25 23 20 17 16 16 16 15 14 14 15 15 16 16 16 16 17 18 18 17 16 16 16 16 17 18 18 19 20 20 20 20 19 18 17 17 16 14 13 12 13 13 12 12 12 12 13 14 15 16 17
13 13 15 17 18 18 18 18 20 23 25 25 24 21 19 18 18 16 14 13 14 15 16 17 18 18 17 17 18 18 17 16 15 13 13 14 15 16 18 19 20 20 19 18 17 17 16 15 13 13 13 13 13 13 13 13 13 14 14 15 16 16

ECMWFFLT2_500_spd_048.txt.gz
Wind_Speed
23 24 26 26 24 22 20 20 19 18 18 18 18 17 16 15 15 14 14 14 14 15 16 17 17 16 17 17 16 16 18 19 20 22 22 20 20 19 18 17 14 14 16 12 12 13 11 9 10 13 15 15 15 16 15 13 13 13 13 11 11 11
24 25 25 25 23 21 21 21 20 19 19 19 19 17 15 14 14 14 15 16 17 17 18 17 16 16 17 17 16 18 21 21 20 21 22 21 20 18 17 18 15 15 14 14 14 14 12 11 12 14 16 16 16 16 16 15 14 14 14 13 13 14
24 24 24 24 22 21 21 21 21 20 20 19 19 18 17 16 17 17 18 18 18 17 17 17 17 17 17 18 17 18 20 21 21 22 22 21 18 16 16 17 17 17 15 15 16 15 14 13 14 16 17 17 17 17 17 16 16 15 15 14 15 15
24 24 24 23 22 22 22 22 21 20 20 20 19 18 18 18 18 18 18 18 17 17 17 18 19 19 18 18 18 17 17 19 21 22 22 19 16 15 15 16 18 19 17 16 17 17 16 15 16 17 18 18 18 18 18 18 17 17 17 16 16 17
24 24 23 22 23 23 23 22 21 20 20 19 19 18 17 18 18 18 18 17 17 18 19 20 20 19 18 17 16 15 16 18 19 20 20 17 15 15 15 17 20 20 18 18 19 18 18 17 17 18 18 19 19 19 19 18 17 18 19 18 17 18
24 22 22 22 23 23 23 22 21 20 19 19 18 17 17 17 17 17 18 18 19 20 20 20 19 17 16 15 15 15 15 15 16 17 18 16 15 16 17 19 19 18 18 19 19 19 19 18 18 18 18 19 19 19 19 19 18 19 20 20 19 19
22 20 20 21 22 22 22 22 21 20 19 18 17 16 16 16 17 17 18 19 20 20 19 18 17 16 15 15 15 13 12 13 14 14 15 15 15 16 17 17 17 16 17 18 18 18 18 17 17 18 19 18 18 18 18 19 19 20 21 22 21 19
20 18 19 20 20 21 22 22 22 20 19 17 16 15 15 16 17 18 18 19 19 18 18 17 16 15 14 13 12 11 11 12 12 11 11 12 14 15 16 16 16 16 16 17 17 17 17 16 16 17 19 19 18 18 19 19 20 20 21 22 22 20
17 17 18 19 20 20 21 21 20 19 17 15 14 13 14 16 17 17 18 17 17 17 16 15 14 12 11 10 10 11 12 12 10 9 9 10 12 13 14 15 15 15 15 16 16 16 15 15 14 15 17 18 19 19 19 19 20 21 22 23 22 20
15 16 17 18 19 19 19 20 19 17 15 13 13 13 15 16 16 17 16 16 17 16 15 13 11 9 9 10 11 12 13 11 10 8 8 9 10 11 12 13 14 14 14 15 16 16 15 14 13 14 15 17 18 19 19 19 20 21 21 22 21 20
14 15 16 18 19 19 18 19 18 16 13 13 13 14 15 16 16 16 16 16 16 15 13 11 10 10 11 12 13 13 13 12 9 8 8 8 9 10 10 11 12 13 14 14 15 15 15 14 14 14 15 16 17 18 19 20 20 20 20 20 20 19
14 14 16 18 18 17 17 17 17 14 13 13 13 14 15 15 15 16 16 16 16 14 12 11 11 12 12 13 12 12 12 11 10 8 8 8 8 9 9 10 11 12 13 14 14 14 14 14 14 15 16 16 15 16 18 18 19 18 18 19 18 18
13 13 15 16 15 14 14 14 14 14 13 13 14 14 15 15 15 16 16 16 15 13 12 12 12 12 12 12 12 11 11 10 10 9 8 7 8 8 8 8 9 11 12 13 13 13 13 13 14 15 16 15 14 14 15 16 17 16 16 18 18 17
11 14 17 16 12 10 11 13 14 14 14 14 15 15 15 15 15 15 15 15 15 14 13 13 13 13 13 12 12 11 11 10 9 8 7 6 6 6 6 7 8 9 10 12 12 12 12 12 12 13 14 14 13 13 14 15 15 14 16 18 17 16
13 16 16 15 11 9 11 14 15 15 15 16 16 16 15 14 14 14 14 14 14 14 14 14 13 13 12 12 11 11 10 9 8 7 6 6 6 5 5 5 7 8 9 10 10 11 11 10 10 11 12 13 13 13 13 13 13 14 16 17 15 15
15 16 15 14 12 11 13 16 17 16 16 16 16 16 14 13 12 12 12 13 14 14 14 13 13 12 11 10 10 10 9 8 7 6 5 5 6 5 5 5 6 7 7 7 8 8 9 9 9 9 9 11 11 11 11 12 14 14 15 15 15 14
16 15 14 14 14 13 14 16 17 17 16 16 15 15 14 13 13 12 13 14 14 14 13 12 12 11 10 10 10 10 9 8 6 5 5 5 6 5 5 5 5 5 5 6 6 6 7 7 7 7 7 8 10 11 11 12 14 14 14 14 14 13
16 15 15 14 14 12 12 13 15 17 17 16 16 15 14 14 13 14 15 15 14 13 12 12 12 11 10 10 11 11 9 8 6 5 5 6 7 6 5 5 5 5 5 5 5 4 5 5 5 5 6 7 9 13 13 12 12 13 13 13 12 11
16 16 16 15 13 10 10 12 14 15 17 17 17 16 15 15 14 15 15 14 13 12 12 11 11 10 11 11 11 10 9 7 7 7 6 7 7 6 6 6 5 5 4 4 4 4 3 3 5 6 7 6 8 12 12 10 11 11 11 11 10 10
17 17 17 16 13 12 11 12 14 14 16 17 18 17 16 16 15 15 14 13 13 12 11 10 10 10 10 11 10 9 9 8 8 7 7 7 7 7 7 7 6 5 5 5 5 5 4 4 6 7 7 7 7 9 10 9 10 11 11 11 10 11
18 18 18 17 14 16 14 14 16 15 16 16 17 17 17 16 15 14 14 13 13 12 11 10 9 9 9 10 10 9 9 8 8 7 7 7 8 8 8 8 7 6 5 5 6 6 5 5 5 6 6 6 7 8 9 9 8 10 11 12 11 11
21 21 20 17 14 15 13 14 16 15 15 16 16 17 16 15 15 15 14 14 13 12 11 10 9 9 9 10 10 9 9 9 8 8 7 8 8 8 9 9 8 7 7 6 6 6 5 5 4 5 6 6 6 7 9 8 5 7 10 11 10 10
24 25 22 19 17 16 13 14 16 15 15 16 16 16 16 16 16 15 15 14 14 13 11 10 9 10 10 10 10 10 10 10 9 9 8 8 8 8 9 9 9 8 8 7 7 6 5 5 4 5 5 5 6 6 7 6 4 5 8 9 8 8
20 25 26 21 19 18 15 15 16 16 17 17 16 17 17 17 17 17 16 15 15 13 12 11 11 11 11 10 10 10 10 9 9 9 8 8 8 8 9 9 9 8 8 8 7 6 5 5 5 5 5 5 6 6 6 6 5 6 8 9 8 9
15 18 25 23 19 18 17 17 18 18 19 19 19 19 18 17 17 18 17 16 15 14 13 12 12 12 12 11 11 10 10 9 9 9 8 7 7 7 8 8 8 8 8 8 7 7 6 6 5 5 5 6 6 6 7 7 7 7 8 9 9 10
16 14 18 21 19 19 19 19 21 22 22 23 23 20 18 18 18 18 18 17 16 15 14 13 13 13 12 12 12 12 11 10 10 9 8 7 7 7 7 7 7 7 7 7 7 7 7 6 6 5 5 5 6 6 8 9 9 8 10 11 10 11
16 17 16 17 19 20 21 22 23 25 26 26 23 20 19 19 20 20 20 19 18 17 15 14 14 14 13 13 13 13 12 11 10 10 9 8 7 7 7 7 7 6 6 6 7 7 6 6 6 6 5 5 6 7 7 8 9 10 11 11 12 13
13 15 13 14 19 21 22 22 24 26 27 24 21 20 21 22 22 22 21 20 19 18 17 16 15 15 14 14 14 13 12 11 11 10 9 8 8 8 8 7 7 7 6 6 6 6 6 6 5 5 5 5 6 6 7 8 9 10 10 12 13 14
13 14 13 13 18 23 23 23 23 27 28 24 21 22 23 23 23 23 22 21 21 20 18 17 16 15 15 15 14 14 13 12 12 11 10 9 8 8 8 8 8 8 7 7 7 7 6 6 6 6 6 5 6 7 7 8 9 10 10 12 14 15
14 14 12 13 18 23 25 24 24 27 27 24 22 24 24 24 24 24 23 23 22 21 19 18 17 16 16 15 14 14 14 13 13 12 11 10 10 9 8 8 8 8 8 8 8 8 7 7 7 7 7 7 7 8 8 9 10 11 11 12 14 15
14 14 13 13 16 21 24 25 25 26 27 26 25 26 27 26 26 24 23 23 22 21 20 19 18 17 16 15 15 14 14 13 13 13 12 12 12 11 10 8 8 8 9 9 9 9 9 9 8 8 8 8 9 9 10 10 11 12 12 13 14 15
14 17 20 18 17 21 25 25 25 27 28 28 28 28 28 27 25 24 23 23 23 21 20 19 18 18 16 15 15 14 13 13 12 13 13 13 13 13 11 10 10 10 10 10 10 10 11 11 10 10 10 10 11 11 12 12 12 12 12 13 14 15
13 17 22 22 21 24 27 27 28 30 30 29 29 29 27 25 24 23 23 23 22 21 20 19 18 18 17 16 15 14 13 12 12 13 13 13 13 14 13 13 13 12 12 12 12 12 13 13 12 12 12 12 13 13 13 12 12 12 13 14 14 15
14 18 20 22 24 28 29 30 31 31 31 30 29 27 25 23 23 23 23 22 22 21 20 19 19 18 17 16 15 14 13 12 13 13 13 13 13 14 15 15 15 14 14 13 13 14 14 15 15 14 14 14 14 14 13 12 12 12 13 14 14 15
16 22 22 22 25 29 31 31 31 31 30 29 27 26 24 23 21 21 21 21 21 21 20 19 19 18 17 16 14 14 14 14 14 14 14 14 15 16 16 17 16 16 16 15 15 14 15 16 16 15 14 14 14 13 13 12 12 13 14 15 15 15
19 24 25 23 24 27 29 29 29 29 29 28 27 25 24 23 22 21 20 19 19 19 18 18 17 17 16 15 15 14 14 14 14 14 15 15 16 17 17 18 18 18 18 17 16 15 15 16 16 16 15 15 14 13 13 13 13 14 15 15 15 14
20 24 25 23 24 26 27 26 26 26 27 27 26 26 25 24 23 21 19 18 17 16 15 16 16 16 16 16 16 16 15 15 15 15 16 16 17 17 18 18 18 18 18 17 16 15 15 15 16 15 15 15 15 14 14 14 14 15 15 15 14 14